Time,TemperatureF,DewpointF,PressureIn,WindDirection,WindDirectionDegrees,WindSpeedMPH,WindSpeedGustMPH,Humidity,HourlyPrecipIn,Conditions,Clouds,dailyrainin,SoftwareType,DateUTC
2013-04-03 00:00:00,30.6,16.7,29.37,WNW,285,3.0,4.0,56,0.00,,,0.00,meteohub,2013-04-03 04:00:00,
2013-04-03 00:05:00,30.7,17.3,28.57,West,279,0.0,0.0,57,0.00,,---,0.00,VWS V14.01,2013-04-03 04:05:00,
2013-04-03 00:10:00,30.9,17.1,28.57,NNW,342,0.9,0.9,56,0.00,,---,0.00,VWS V14.01,2013-04-03 04:10:00,
2013-04-03 00:15:00,30.9,17.1,28.57,NE,36,0.0,0.9,56,0.00,,---,0.00,VWS V14.01,2013-04-03 04:15:00,
2013-04-03 00:16:00,31.1,17.2,28.57,NE,36,0.0,0.9,56,0.00,,---,0.00,VWS V14.01,2013-04-03 04:16:00,
2013-04-03 00:20:00,31.3,17.0,28.57,North,351,0.0,0.0,55,0.00,,---,0.00,VWS V14.01,2013-04-03 04:20:00,
2013-04-03 00:21:00,31.3,17.0,28.57,North,351,0.0,0.0,55,0.00,,---,0.00,VWS V14.01,2013-04-03 04:21:00,
2013-04-03 00:25:00,31.3,17.0,28.58,WNW,290,0.0,0.0,55,0.00,,---,0.00,VWS V14.01,2013-04-03 04:25:00,
2013-04-03 00:26:00,31.5,16.8,28.58,NW,325,0.9,0.9,54,0.00,,---,0.00,VWS V14.01,2013-04-03 04:26:00,
2013-04-03 00:30:00,31.5,17.2,28.58,NW,325,0.9,0.9,55,0.00,,---,0.00,VWS V14.01,2013-04-03 04:30:00,
2013-04-03 00:32:00,31.5,17.2,28.58,NW,325,0.0,0.9,55,0.00,,---,0.00,VWS V14.01,2013-04-03 04:32:00,
2013-04-03 00:35:00,31.5,17.2,28.58,NW,325,0.0,0.9,55,0.00,,---,0.00,VWS V14.01,2013-04-03 04:35:00,
2013-04-03 00:37:00,31.5,17.2,28.58,NW,325,0.0,0.9,55,0.00,,---,0.00,VWS V14.01,2013-04-03 04:37:00,
2013-04-03 00:40:00,31.5,16.8,28.58,WNW,292,0.0,0.9,54,0.00,,---,0.00,VWS V14.01,2013-04-03 04:40:00,
2013-04-03 00:42:00,31.6,16.9,28.58,WNW,292,0.0,0.9,54,0.00,,---,0.00,VWS V14.01,2013-04-03 04:42:00,
2013-04-03 00:45:00,31.6,16.9,28.58,WNW,293,0.0,0.9,54,0.00,,---,0.00,VWS V14.01,2013-04-03 04:45:00,
2013-04-03 00:47:00,31.6,16.9,28.58,WNW,293,0.0,0.9,54,0.00,,---,0.00,VWS V14.01,2013-04-03 04:47:00,
2013-04-03 00:50:00,31.6,16.9,28.58,WNW,293,0.0,0.9,54,0.00,,---,0.00,VWS V14.01,2013-04-03 04:50:00,
2013-04-03 00:52:00,31.6,16.9,28.58,WNW,293,0.0,0.9,54,0.00,,---,0.00,VWS V14.01,2013-04-03 04:52:00,
2013-04-03 00:55:00,31.5,16.8,28.58,SE,146,0.0,0.9,54,0.00,,---,0.00,VWS V14.01,2013-04-03 04:55:00,
2013-04-03 00:57:00,31.5,16.8,28.58,SE,146,0.0,0.9,54,0.00,,---,0.00,VWS V14.01,2013-04-03 04:57:00,
2013-04-03 01:00:00,31.5,16.8,28.58,WNW,286,0.0,0.0,54,0.00,,---,0.00,VWS V14.01,2013-04-03 05:00:00,
2013-04-03 01:02:00,31.5,16.8,28.58,WNW,286,0.0,0.0,54,0.00,,---,0.00,VWS V14.01,2013-04-03 05:02:00,
2013-04-03 01:05:00,31.5,16.8,28.58,SE,127,0.0,0.0,54,0.00,,---,0.00,VWS V14.01,2013-04-03 05:05:00,
2013-04-03 01:07:00,31.5,16.8,28.58,SE,127,0.0,0.0,54,0.00,,---,0.00,VWS V14.01,2013-04-03 05:07:00,
2013-04-03 01:10:00,31.5,16.8,28.58,SE,127,0.0,0.0,54,0.00,,---,0.00,VWS V14.01,2013-04-03 05:10:00,
2013-04-03 01:11:00,31.5,16.8,28.58,SE,127,0.0,0.0,54,0.00,,---,0.00,VWS V14.01,2013-04-03 05:11:00,
2013-04-03 01:13:00,31.5,16.8,28.58,SSW,200,0.0,0.0,54,0.00,,---,0.00,VWS V14.01,2013-04-03 05:13:00,
2013-04-03 01:15:00,31.5,16.8,28.59,SSW,200,0.0,0.0,54,0.00,,---,0.00,VWS V14.01,2013-04-03 05:15:00,
2013-04-03 01:16:00,31.5,16.8,28.58,SSW,200,0.0,0.0,54,0.00,,---,0.00,VWS V14.01,2013-04-03 05:16:00,
2013-04-03 01:18:00,31.5,16.8,28.58,NNW,338,0.0,0.0,54,0.00,,---,0.00,VWS V14.01,2013-04-03 05:18:00,
2013-04-03 01:21:00,31.5,16.7,29.38,WNW,294,0.0,4.0,54,0.00,,,0.00,meteohub,2013-04-03 05:21:00,
2013-04-03 01:23:00,31.5,16.8,28.59,NW,308,0.9,0.9,54,0.00,,---,0.00,VWS V14.01,2013-04-03 05:23:00,
2013-04-03 01:25:00,31.5,16.3,29.39,NNW,330,1.0,6.0,53,0.00,,,0.00,meteohub,2013-04-03 05:25:00,
2013-04-03 01:26:00,31.5,16.4,28.59,NNW,330,2.0,2.0,53,0.00,,---,0.00,VWS V14.01,2013-04-03 05:26:00,
2013-04-03 01:27:00,31.5,16.4,28.59,NNW,330,2.0,2.0,53,0.00,,---,0.00,VWS V14.01,2013-04-03 05:27:00,
2013-04-03 01:28:00,31.5,16.4,28.58,SSW,205,0.9,2.0,53,0.00,,---,0.00,VWS V14.01,2013-04-03 05:28:00,
2013-04-03 01:32:00,31.6,16.5,28.59,NNE,32,2.0,2.0,53,0.00,,---,0.00,VWS V14.01,2013-04-03 05:32:00,
2013-04-03 01:33:00,31.6,16.0,28.59,NNE,32,0.9,2.0,52,0.00,,---,0.00,VWS V14.01,2013-04-03 05:33:00,
2013-04-03 01:37:00,31.8,16.2,28.59,NNE,13,0.9,2.0,52,0.00,,---,0.00,VWS V14.01,2013-04-03 05:37:00,
2013-04-03 01:38:00,31.8,16.2,28.59,NNE,13,0.9,2.0,52,0.00,,---,0.00,VWS V14.01,2013-04-03 05:38:00,
2013-04-03 01:42:00,31.8,16.2,28.59,NNE,13,0.9,2.0,52,0.00,,---,0.00,VWS V14.01,2013-04-03 05:42:00,
2013-04-03 01:43:00,31.8,16.2,28.59,NNE,13,0.9,2.0,52,0.00,,---,0.00,VWS V14.01,2013-04-03 05:43:00,
2013-04-03 01:47:00,31.8,16.2,28.59,NE,36,0.0,2.0,52,0.00,,---,0.00,VWS V14.01,2013-04-03 05:47:00,
2013-04-03 01:48:00,31.8,15.8,28.59,NE,36,0.0,2.0,51,0.00,,---,0.00,VWS V14.01,2013-04-03 05:48:00,
2013-04-03 01:52:00,31.8,16.2,28.59,NE,36,0.0,2.0,52,0.00,,---,0.00,VWS V14.01,2013-04-03 05:52:00,
2013-04-03 01:53:00,31.8,16.2,28.59,NE,36,0.0,2.0,52,0.00,,---,0.00,VWS V14.01,2013-04-03 05:53:00,
2013-04-03 01:57:00,31.6,16.0,28.59,NE,36,0.0,2.0,52,0.00,,---,0.00,VWS V14.01,2013-04-03 05:57:00,
2013-04-03 01:58:00,31.6,16.0,28.59,NE,36,0.0,2.0,52,0.00,,---,0.00,VWS V14.01,2013-04-03 05:58:00,
2013-04-03 01:59:00,31.6,16.0,28.59,NE,36,0.0,2.0,52,0.00,,---,0.00,VWS V14.01,2013-04-03 05:59:00,
2013-04-03 02:02:00,31.6,16.0,28.59,NE,36,0.0,0.0,52,0.00,,---,0.00,VWS V14.01,2013-04-03 06:02:00,
2013-04-03 02:03:00,31.6,16.0,28.59,NE,36,0.0,0.0,52,0.00,,---,0.00,VWS V14.01,2013-04-03 06:03:00,
2013-04-03 02:04:00,31.5,15.9,28.59,NE,36,0.0,0.0,52,0.00,,---,0.00,VWS V14.01,2013-04-03 06:04:00,
2013-04-03 02:07:00,31.5,15.9,28.59,NE,36,0.0,0.0,52,0.00,,---,0.00,VWS V14.01,2013-04-03 06:07:00,
2013-04-03 02:08:00,31.5,15.9,28.59,NE,36,0.0,0.0,52,0.00,,---,0.00,VWS V14.01,2013-04-03 06:08:00,
2013-04-03 02:09:00,31.5,15.9,28.59,NE,36,0.0,0.0,52,0.00,,---,0.00,VWS V14.01,2013-04-03 06:09:00,
2013-04-03 02:12:00,31.3,15.7,28.59,NE,36,0.0,0.0,52,0.00,,---,0.00,VWS V14.01,2013-04-03 06:12:00,
2013-04-03 02:13:00,31.3,15.7,28.59,NE,36,0.0,0.0,52,0.00,,---,0.00,VWS V14.01,2013-04-03 06:13:00,
2013-04-03 02:14:00,31.3,15.7,28.59,NE,36,0.0,0.0,52,0.00,,---,0.00,VWS V14.01,2013-04-03 06:14:00,
2013-04-03 02:18:00,31.1,15.5,28.59,NE,36,0.0,0.0,52,0.00,,---,0.00,VWS V14.01,2013-04-03 06:18:00,
2013-04-03 02:19:00,31.1,16.0,28.58,NE,36,0.0,0.0,53,0.00,,---,0.00,VWS V14.01,2013-04-03 06:19:00,
2013-04-03 02:23:00,30.9,15.8,28.58,NE,36,0.0,0.0,53,0.00,,---,0.00,VWS V14.01,2013-04-03 06:23:00,
2013-04-03 02:24:00,30.7,15.6,28.58,NE,36,0.0,0.0,53,0.00,,---,0.00,VWS V14.01,2013-04-03 06:24:00,
2013-04-03 02:28:00,30.7,15.6,28.58,NE,36,0.0,0.0,53,0.00,,---,0.00,VWS V14.01,2013-04-03 06:28:00,
2013-04-03 02:29:00,30.6,15.5,28.58,NE,36,0.0,0.0,53,0.00,,---,0.00,VWS V14.01,2013-04-03 06:29:00,
2013-04-03 02:33:00,30.4,15.8,28.58,NE,36,0.0,0.0,54,0.00,,---,0.00,VWS V14.01,2013-04-03 06:33:00,
2013-04-03 02:34:00,30.4,15.8,28.58,NE,36,0.0,0.0,54,0.00,,---,0.00,VWS V14.01,2013-04-03 06:34:00,
2013-04-03 02:38:00,30.2,15.6,28.58,NE,36,0.0,0.0,54,0.00,,---,0.00,VWS V14.01,2013-04-03 06:38:00,
2013-04-03 02:39:00,30.0,15.4,28.58,NE,36,0.0,0.0,54,0.00,,---,0.00,VWS V14.01,2013-04-03 06:39:00,
2013-04-03 02:43:00,29.8,15.2,28.58,NE,36,0.0,0.0,54,0.00,,---,0.00,VWS V14.01,2013-04-03 06:43:00,
2013-04-03 02:44:00,29.8,15.2,28.58,NE,36,0.0,0.0,54,0.00,,---,0.00,VWS V14.01,2013-04-03 06:44:00,
2013-04-03 02:45:00,29.8,15.6,28.58,NE,36,0.0,0.0,55,0.00,,---,0.00,VWS V14.01,2013-04-03 06:45:00,
2013-04-03 02:48:00,29.7,15.5,28.58,NE,36,0.0,0.0,55,0.00,,---,0.00,VWS V14.01,2013-04-03 06:48:00,
2013-04-03 02:49:00,29.7,15.5,28.58,NE,36,0.0,0.0,55,0.00,,---,0.00,VWS V14.01,2013-04-03 06:49:00,
2013-04-03 02:50:00,29.7,15.5,28.58,NE,36,0.0,0.0,55,0.00,,---,0.00,VWS V14.01,2013-04-03 06:50:00,
2013-04-03 02:53:00,29.5,15.3,28.58,NE,36,0.0,0.0,55,0.00,,---,0.00,VWS V14.01,2013-04-03 06:53:00,
2013-04-03 02:54:00,29.5,15.3,28.58,NE,36,0.0,0.0,55,0.00,,---,0.00,VWS V14.01,2013-04-03 06:54:00,
2013-04-03 02:55:00,29.3,15.1,28.58,NE,36,0.0,0.0,55,0.00,,---,0.00,VWS V14.01,2013-04-03 06:55:00,
2013-04-03 02:58:00,29.1,15.0,28.58,NE,36,0.0,0.0,55,0.00,,---,0.00,VWS V14.01,2013-04-03 06:58:00,
2013-04-03 02:59:00,29.1,15.0,28.58,NE,36,0.0,0.0,55,0.00,,---,0.00,VWS V14.01,2013-04-03 06:59:00,
2013-04-03 03:00:00,29.1,15.0,28.58,NE,36,0.0,0.0,55,0.00,,---,0.00,VWS V14.01,2013-04-03 07:00:00,
2013-04-03 03:03:00,28.9,14.8,28.58,NE,36,0.0,0.0,55,0.00,,---,0.00,VWS V14.01,2013-04-03 07:03:00,
2013-04-03 03:04:00,28.9,14.8,28.58,NE,36,0.0,0.0,55,0.00,,---,0.00,VWS V14.01,2013-04-03 07:04:00,
2013-04-03 03:05:00,28.9,15.2,28.58,NE,36,0.0,0.0,56,0.00,,---,0.00,VWS V14.01,2013-04-03 07:05:00,
2013-04-03 03:08:00,28.8,15.1,28.58,NE,36,0.0,0.0,56,0.00,,---,0.00,VWS V14.01,2013-04-03 07:08:00,
2013-04-03 03:09:00,28.8,15.1,28.58,NE,36,0.0,0.0,56,0.00,,---,0.00,VWS V14.01,2013-04-03 07:09:00,
2013-04-03 03:10:00,28.8,15.1,28.58,NE,36,0.0,0.0,56,0.00,,---,0.00,VWS V14.01,2013-04-03 07:10:00,
2013-04-03 03:14:00,28.8,14.7,28.58,NE,36,0.0,0.0,55,0.00,,---,0.00,VWS V14.01,2013-04-03 07:14:00,
2013-04-03 03:16:00,28.8,15.1,28.58,NE,36,0.0,0.0,56,0.00,,---,0.00,VWS V14.01,2013-04-03 07:16:00,
2013-04-03 03:19:00,28.8,14.7,28.58,NE,36,0.0,0.0,55,0.00,,---,0.00,VWS V14.01,2013-04-03 07:19:00,
2013-04-03 03:21:00,28.6,14.9,28.58,NE,36,0.0,0.0,56,0.00,,---,0.00,VWS V14.01,2013-04-03 07:21:00,
2013-04-03 03:24:00,28.6,14.5,28.58,NE,36,0.0,0.0,55,0.00,,---,0.00,VWS V14.01,2013-04-03 07:24:00,
2013-04-03 03:26:00,28.6,14.5,28.58,NE,36,0.0,0.0,55,0.00,,---,0.00,VWS V14.01,2013-04-03 07:26:00,
2013-04-03 03:27:00,28.6,14.9,28.58,NE,36,0.0,0.0,56,0.00,,---,0.00,VWS V14.01,2013-04-03 07:27:00,
2013-04-03 03:29:00,28.6,14.5,28.58,WSW,248,0.0,0.0,55,0.00,,---,0.00,VWS V14.01,2013-04-03 07:29:00,
2013-04-03 03:32:00,28.6,14.9,28.58,WSW,248,0.0,0.0,56,0.00,,---,0.00,VWS V14.01,2013-04-03 07:32:00,
2013-04-03 03:34:00,28.6,14.5,28.58,WSW,248,0.0,0.0,55,0.00,,---,0.00,VWS V14.01,2013-04-03 07:34:00,
2013-04-03 03:37:00,28.6,14.5,28.58,NW,325,0.0,0.0,55,0.00,,---,0.00,VWS V14.01,2013-04-03 07:37:00,
2013-04-03 03:39:00,28.6,14.5,28.58,NW,325,0.0,0.0,55,0.00,,---,0.00,VWS V14.01,2013-04-03 07:39:00,
2013-04-03 03:42:00,28.6,14.5,28.59,NW,325,0.0,0.0,55,0.00,,---,0.00,VWS V14.01,2013-04-03 07:42:00,
2013-04-03 03:44:00,28.6,14.5,28.59,NW,325,0.0,0.0,55,0.00,,---,0.00,VWS V14.01,2013-04-03 07:44:00,
2013-04-03 03:47:00,28.6,14.5,28.58,NW,325,0.0,0.0,55,0.00,,---,0.00,VWS V14.01,2013-04-03 07:47:00,
2013-04-03 03:50:00,28.6,14.9,28.59,NW,325,0.0,0.0,56,0.00,,---,0.00,VWS V14.01,2013-04-03 07:50:00,
2013-04-03 03:52:00,28.6,14.9,28.59,NW,325,0.0,0.0,56,0.00,,---,0.00,VWS V14.01,2013-04-03 07:52:00,
2013-04-03 03:55:00,28.6,14.5,28.58,NW,325,0.0,0.0,55,0.00,,---,0.00,VWS V14.01,2013-04-03 07:55:00,
2013-04-03 03:57:00,28.6,14.5,28.58,NW,325,0.0,0.0,55,0.00,,---,0.00,VWS V14.01,2013-04-03 07:57:00,
2013-04-03 04:00:00,28.6,14.5,28.58,NW,325,0.0,0.0,55,0.00,,---,0.00,VWS V14.01,2013-04-03 08:00:00,
2013-04-03 04:02:00,28.6,14.9,28.59,NW,325,0.0,0.0,56,0.00,,---,0.00,VWS V14.01,2013-04-03 08:02:00,
2013-04-03 04:05:00,28.4,14.7,28.59,NW,325,0.0,0.0,56,0.00,,---,0.00,VWS V14.01,2013-04-03 08:05:00,
2013-04-03 04:07:00,28.4,14.7,28.59,NW,325,0.0,0.0,56,0.00,,---,0.00,VWS V14.01,2013-04-03 08:07:00,
2013-04-03 04:10:00,28.4,14.7,28.59,NW,325,0.0,0.0,56,0.00,,---,0.00,VWS V14.01,2013-04-03 08:10:00,
2013-04-03 04:12:00,28.2,14.5,28.59,NW,325,0.0,0.0,56,0.00,,---,0.00,VWS V14.01,2013-04-03 08:12:00,
2013-04-03 04:15:00,28.2,14.5,28.59,NW,325,0.0,0.0,56,0.00,,---,0.00,VWS V14.01,2013-04-03 08:15:00,
2013-04-03 04:17:00,28.2,14.9,28.59,NW,325,0.0,0.0,57,0.00,,---,0.00,VWS V14.01,2013-04-03 08:17:00,
2013-04-03 04:20:00,28.2,14.9,28.59,NW,325,0.0,0.0,57,0.00,,---,0.00,VWS V14.01,2013-04-03 08:20:00,
2013-04-03 04:22:00,28.2,14.9,28.59,NW,325,0.0,0.0,57,0.00,,---,0.00,VWS V14.01,2013-04-03 08:22:00,
2013-04-03 04:25:00,28.0,14.8,28.59,NW,325,0.0,0.0,57,0.00,,---,0.00,VWS V14.01,2013-04-03 08:25:00,
2013-04-03 04:27:00,28.0,14.8,28.59,NW,325,0.0,0.0,57,0.00,,---,0.00,VWS V14.01,2013-04-03 08:27:00,
2013-04-03 04:28:00,28.0,14.8,28.59,NW,325,0.0,0.0,57,0.00,,---,0.00,VWS V14.01,2013-04-03 08:28:00,
2013-04-03 04:30:00,28.0,14.8,28.59,NW,325,0.0,0.0,57,0.00,,---,0.00,VWS V14.01,2013-04-03 08:30:00,
2013-04-03 04:32:00,27.9,14.6,28.59,NW,325,0.0,0.0,57,0.00,,---,0.00,VWS V14.01,2013-04-03 08:32:00,
2013-04-03 04:33:00,27.9,14.6,28.59,NW,325,0.0,0.0,57,0.00,,---,0.00,VWS V14.01,2013-04-03 08:33:00,
2013-04-03 04:35:00,27.9,14.6,28.59,NW,325,0.0,0.0,57,0.00,,---,0.00,VWS V14.01,2013-04-03 08:35:00,
2013-04-03 04:37:00,27.9,14.6,28.59,NW,325,0.0,0.0,57,0.00,,---,0.00,VWS V14.01,2013-04-03 08:37:00,
2013-04-03 04:38:00,27.9,14.6,28.59,NW,325,0.0,0.0,57,0.00,,---,0.00,VWS V14.01,2013-04-03 08:38:00,
2013-04-03 04:40:00,27.9,14.6,28.60,NW,325,0.0,0.0,57,0.00,,---,0.00,VWS V14.01,2013-04-03 08:40:00,
2013-04-03 04:42:00,27.7,14.5,28.60,NW,325,0.0,0.0,57,0.00,,---,0.00,VWS V14.01,2013-04-03 08:42:00,
2013-04-03 04:43:00,27.7,14.5,28.60,NW,325,0.0,0.0,57,0.00,,---,0.00,VWS V14.01,2013-04-03 08:43:00,
2013-04-03 04:45:00,27.7,14.5,28.60,NW,325,0.0,0.0,57,0.00,,---,0.00,VWS V14.01,2013-04-03 08:45:00,
2013-04-03 04:48:00,27.5,16.2,28.60,NW,325,0.0,0.0,62,0.00,,---,0.00,VWS V14.01,2013-04-03 08:48:00,
2013-04-03 04:50:00,27.3,14.5,28.60,NW,325,0.0,0.0,58,0.00,,---,0.00,VWS V14.01,2013-04-03 08:50:00,
2013-04-03 04:53:00,27.3,14.5,28.60,NW,325,0.0,0.0,58,0.00,,---,0.00,VWS V14.01,2013-04-03 08:53:00,
2013-04-03 04:55:00,27.1,14.3,28.60,NW,325,0.0,0.0,58,0.00,,---,0.00,VWS V14.01,2013-04-03 08:55:00,
2013-04-03 04:58:00,27.1,14.3,28.60,NW,325,0.0,0.0,58,0.00,,---,0.00,VWS V14.01,2013-04-03 08:58:00,
2013-04-03 05:00:00,27.1,14.7,28.60,NW,325,0.0,0.0,59,0.00,,---,0.00,VWS V14.01,2013-04-03 09:00:00,
2013-04-03 05:03:00,27.0,14.6,28.60,NW,325,0.0,0.0,59,0.00,,---,0.00,VWS V14.01,2013-04-03 09:03:00,
2013-04-03 05:05:00,27.0,14.6,28.60,NW,325,0.0,0.0,59,0.00,,---,0.00,VWS V14.01,2013-04-03 09:05:00,
2013-04-03 05:08:00,27.0,14.6,28.60,NW,325,0.0,0.0,59,0.00,,---,0.00,VWS V14.01,2013-04-03 09:08:00,
2013-04-03 05:10:00,27.0,14.6,28.60,NW,325,0.0,0.0,59,0.00,,---,0.00,VWS V14.01,2013-04-03 09:10:00,
2013-04-03 05:11:00,27.0,14.6,28.60,NW,325,0.0,0.0,59,0.00,,---,0.00,VWS V14.01,2013-04-03 09:11:00,
2013-04-03 05:13:00,27.0,14.6,28.60,NW,325,0.0,0.0,59,0.00,,---,0.00,VWS V14.01,2013-04-03 09:13:00,
2013-04-03 05:15:00,27.0,14.6,28.60,NW,325,0.0,0.0,59,0.00,,---,0.00,VWS V14.01,2013-04-03 09:15:00,
2013-04-03 05:16:00,27.0,14.6,28.61,NW,325,0.0,0.0,59,0.00,,---,0.00,VWS V14.01,2013-04-03 09:16:00,
2013-04-03 05:18:00,27.0,14.6,28.61,NW,325,0.0,0.0,59,0.00,,---,0.00,VWS V14.01,2013-04-03 09:18:00,
2013-04-03 05:20:00,27.0,15.0,28.61,NW,325,0.0,0.0,60,0.00,,---,0.00,VWS V14.01,2013-04-03 09:20:00,
2013-04-03 05:21:00,27.0,15.0,28.61,NW,325,0.0,0.0,60,0.00,,---,0.00,VWS V14.01,2013-04-03 09:21:00,
2013-04-03 05:23:00,27.0,15.0,28.61,NW,325,0.0,0.0,60,0.00,,---,0.00,VWS V14.01,2013-04-03 09:23:00,
2013-04-03 05:25:00,27.0,15.0,28.61,NW,325,0.0,0.0,60,0.00,,---,0.00,VWS V14.01,2013-04-03 09:25:00,
2013-04-03 05:26:00,27.0,15.0,28.61,NW,325,0.0,0.0,60,0.00,,---,0.00,VWS V14.01,2013-04-03 09:26:00,
2013-04-03 05:28:00,27.0,15.0,28.61,NW,325,0.0,0.0,60,0.00,,---,0.00,VWS V14.01,2013-04-03 09:28:00,
2013-04-03 05:30:00,27.0,15.0,28.61,NW,325,0.0,0.0,60,0.00,,---,0.00,VWS V14.01,2013-04-03 09:30:00,
2013-04-03 05:31:00,27.0,15.0,28.61,NW,325,0.0,0.0,60,0.00,,---,0.00,VWS V14.01,2013-04-03 09:31:00,
2013-04-03 05:33:00,27.0,15.0,28.61,NW,325,0.0,0.0,60,0.00,,---,0.00,VWS V14.01,2013-04-03 09:33:00,
2013-04-03 05:35:00,27.0,15.0,28.61,NW,325,0.0,0.0,60,0.00,,---,0.00,VWS V14.01,2013-04-03 09:35:00,
2013-04-03 05:36:00,27.0,15.0,28.61,NW,325,0.0,0.0,60,0.00,,---,0.00,VWS V14.01,2013-04-03 09:36:00,
2013-04-03 05:38:00,27.0,15.0,28.61,NW,325,0.0,0.0,60,0.00,,---,0.00,VWS V14.01,2013-04-03 09:38:00,
2013-04-03 05:40:00,27.0,15.0,28.61,NW,325,0.0,0.0,60,0.00,,---,0.00,VWS V14.01,2013-04-03 09:40:00,
2013-04-03 05:42:00,27.0,15.0,28.61,NW,325,0.0,0.0,60,0.00,,---,0.00,VWS V14.01,2013-04-03 09:42:00,
2013-04-03 05:43:00,27.0,15.0,28.61,NW,325,0.0,0.0,60,0.00,,---,0.00,VWS V14.01,2013-04-03 09:43:00,
2013-04-03 05:44:00,27.0,15.0,28.61,NW,325,0.0,0.0,60,0.00,,---,0.00,VWS V14.01,2013-04-03 09:44:00,
2013-04-03 05:46:00,27.0,15.0,28.61,NW,325,0.0,0.0,60,0.00,,---,0.00,VWS V14.01,2013-04-03 09:46:00,
2013-04-03 05:47:00,27.0,15.0,28.61,NW,325,0.0,0.0,60,0.00,,---,0.00,VWS V14.01,2013-04-03 09:47:00,
2013-04-03 05:48:00,27.0,15.0,28.61,NW,325,0.0,0.0,60,0.00,,---,0.00,VWS V14.01,2013-04-03 09:48:00,
2013-04-03 05:49:00,27.0,15.0,28.61,NW,325,0.0,0.0,60,0.00,,---,0.00,VWS V14.01,2013-04-03 09:49:00,
2013-04-03 05:51:00,26.8,15.2,28.61,NW,325,0.0,0.0,61,0.00,,---,0.00,VWS V14.01,2013-04-03 09:51:00,
2013-04-03 05:52:00,26.8,14.8,28.61,NW,325,0.0,0.0,60,0.00,,---,0.00,VWS V14.01,2013-04-03 09:52:00,
2013-04-03 05:53:00,26.8,14.8,28.61,NW,325,0.0,0.0,60,0.00,,---,0.00,VWS V14.01,2013-04-03 09:53:00,
2013-04-03 05:54:00,26.8,14.8,28.61,NW,325,0.0,0.0,60,0.00,,---,0.00,VWS V14.01,2013-04-03 09:54:00,
2013-04-03 05:56:00,26.8,15.2,28.61,NW,325,0.0,0.0,61,0.00,,---,0.00,VWS V14.01,2013-04-03 09:56:00,
2013-04-03 05:58:00,26.8,15.2,28.61,NW,325,0.0,0.0,61,0.00,,---,0.00,VWS V14.01,2013-04-03 09:58:00,
2013-04-03 05:59:00,26.8,15.2,28.61,NW,325,0.0,0.0,61,0.00,,---,0.00,VWS V14.01,2013-04-03 09:59:00,
2013-04-03 06:01:00,26.8,15.2,28.61,NW,325,0.0,0.0,61,0.00,,---,0.00,VWS V14.01,2013-04-03 10:01:00,
2013-04-03 06:03:00,26.8,15.2,28.61,NW,325,0.0,0.0,61,0.00,,---,0.00,VWS V14.01,2013-04-03 10:03:00,
2013-04-03 06:04:00,26.8,15.2,28.61,NW,325,0.0,0.0,61,0.00,,---,0.00,VWS V14.01,2013-04-03 10:04:00,
2013-04-03 06:06:00,26.8,15.2,28.61,NW,325,0.0,0.0,61,0.00,,---,0.00,VWS V14.01,2013-04-03 10:06:00,
2013-04-03 06:08:00,26.8,15.2,28.61,NW,325,0.0,0.0,61,0.00,,---,0.00,VWS V14.01,2013-04-03 10:08:00,
2013-04-03 06:09:00,26.8,15.2,28.61,NW,325,0.0,0.0,61,0.00,,---,0.00,VWS V14.01,2013-04-03 10:09:00,
2013-04-03 06:11:00,26.8,15.5,28.61,NW,325,0.0,0.0,62,0.00,,---,0.00,VWS V14.01,2013-04-03 10:11:00,
2013-04-03 06:13:00,26.8,15.5,28.61,NW,325,0.0,0.0,62,0.00,,---,0.00,VWS V14.01,2013-04-03 10:13:00,
2013-04-03 06:14:00,26.8,15.5,28.61,NW,325,0.0,0.0,62,0.00,,---,0.00,VWS V14.01,2013-04-03 10:14:00,
2013-04-03 06:17:00,26.8,15.5,28.61,NW,325,0.0,0.0,62,0.00,,---,0.00,VWS V14.01,2013-04-03 10:17:00,
2013-04-03 06:18:00,26.8,15.5,28.61,NW,325,0.0,0.0,62,0.00,,---,0.00,VWS V14.01,2013-04-03 10:18:00,
2013-04-03 06:19:00,26.8,15.5,28.61,NW,325,0.0,0.0,62,0.00,,---,0.00,VWS V14.01,2013-04-03 10:19:00,
2013-04-03 06:22:00,26.8,15.5,28.62,NW,325,0.0,0.0,62,0.00,,---,0.00,VWS V14.01,2013-04-03 10:22:00,
2013-04-03 06:23:00,26.8,15.2,28.62,NW,325,0.0,0.0,61,0.00,,---,0.00,VWS V14.01,2013-04-03 10:23:00,
2013-04-03 06:24:00,26.8,15.2,28.62,NW,325,0.0,0.0,61,0.00,,---,0.00,VWS V14.01,2013-04-03 10:24:00,
2013-04-03 06:27:00,26.8,15.2,28.62,NW,325,0.0,0.0,61,0.00,,---,0.00,VWS V14.01,2013-04-03 10:27:00,
2013-04-03 06:28:00,26.6,15.0,28.62,NW,325,0.0,0.0,61,0.00,,---,0.00,VWS V14.01,2013-04-03 10:28:00,
2013-04-03 06:29:00,26.6,15.0,28.62,NW,325,0.0,0.0,61,0.00,,---,0.00,VWS V14.01,2013-04-03 10:29:00,
2013-04-03 06:33:00,26.4,15.2,28.62,NW,325,0.0,0.0,62,0.00,,---,0.00,VWS V14.01,2013-04-03 10:33:00,
2013-04-03 06:34:00,26.4,15.2,28.62,NW,325,0.0,0.0,62,0.00,,---,0.00,VWS V14.01,2013-04-03 10:34:00,
2013-04-03 06:38:00,26.4,15.2,28.62,NW,325,0.0,0.0,62,0.00,,---,0.00,VWS V14.01,2013-04-03 10:38:00,
2013-04-03 06:39:00,26.4,15.2,28.62,NW,325,0.0,0.0,62,0.00,,---,0.00,VWS V14.01,2013-04-03 10:39:00,
2013-04-03 06:43:00,26.2,15.0,28.62,NW,325,0.0,0.0,62,0.00,,---,0.00,VWS V14.01,2013-04-03 10:43:00,
2013-04-03 06:44:00,26.2,15.0,28.62,NW,325,0.0,0.0,62,0.00,,---,0.00,VWS V14.01,2013-04-03 10:44:00,
2013-04-03 06:48:00,26.2,15.0,28.62,NW,325,0.0,0.0,62,0.00,,---,0.00,VWS V14.01,2013-04-03 10:48:00,
2013-04-03 06:49:00,26.2,15.0,28.62,NW,325,0.0,0.0,62,0.00,,---,0.00,VWS V14.01,2013-04-03 10:49:00,
2013-04-03 06:53:00,26.2,15.0,28.63,NW,325,0.0,0.0,62,0.00,,---,0.00,VWS V14.01,2013-04-03 10:53:00,
2013-04-03 06:54:00,26.2,15.3,28.62,NW,325,0.0,0.0,63,0.00,,---,0.00,VWS V14.01,2013-04-03 10:54:00,
2013-04-03 06:55:00,26.2,15.3,28.63,NW,325,0.0,0.0,63,0.00,,---,0.00,VWS V14.01,2013-04-03 10:55:00,
2013-04-03 06:58:00,26.2,15.3,28.63,NW,325,0.0,0.0,63,0.00,,---,0.00,VWS V14.01,2013-04-03 10:58:00,
2013-04-03 06:59:00,26.2,15.3,28.63,NW,325,0.0,0.0,63,0.00,,---,0.00,VWS V14.01,2013-04-03 10:59:00,
2013-04-03 07:00:00,26.2,15.3,28.63,NW,325,0.0,0.0,63,0.00,,---,0.00,VWS V14.01,2013-04-03 11:00:00,
2013-04-03 07:03:00,26.1,15.2,28.63,NW,325,0.0,0.0,63,0.00,,---,0.00,VWS V14.01,2013-04-03 11:03:00,
2013-04-03 07:04:00,26.1,15.2,28.63,NW,325,0.0,0.0,63,0.00,,---,0.00,VWS V14.01,2013-04-03 11:04:00,
2013-04-03 07:05:00,26.1,15.2,28.63,NW,325,0.0,0.0,63,0.00,,---,0.00,VWS V14.01,2013-04-03 11:05:00,
2013-04-03 07:08:00,26.1,15.2,28.63,NW,325,0.0,0.0,63,0.00,,---,0.00,VWS V14.01,2013-04-03 11:08:00,
2013-04-03 07:09:00,26.1,15.2,28.63,NW,325,0.0,0.0,63,0.00,,---,0.00,VWS V14.01,2013-04-03 11:09:00,
2013-04-03 07:10:00,26.1,15.2,28.63,NW,325,0.0,0.0,63,0.00,,---,0.00,VWS V14.01,2013-04-03 11:10:00,
2013-04-03 07:13:00,26.1,15.2,28.63,NW,325,0.0,0.0,63,0.00,,---,0.00,VWS V14.01,2013-04-03 11:13:00,
2013-04-03 07:14:00,26.1,15.6,28.63,NW,325,0.0,0.0,64,0.00,,---,0.00,VWS V14.01,2013-04-03 11:14:00,
2013-04-03 07:15:00,26.1,15.6,28.63,NW,325,0.0,0.0,64,0.00,,---,0.00,VWS V14.01,2013-04-03 11:15:00,
2013-04-03 07:18:00,26.2,15.7,28.64,NW,325,0.0,0.0,64,0.00,,---,0.00,VWS V14.01,2013-04-03 11:18:00,
2013-04-03 07:19:00,26.1,15.6,28.64,NW,325,0.0,0.0,64,0.00,,---,0.00,VWS V14.01,2013-04-03 11:19:00,
2013-04-03 07:20:00,26.2,15.7,28.64,NW,325,0.0,0.0,64,0.00,,---,0.00,VWS V14.01,2013-04-03 11:20:00,
2013-04-03 07:23:00,26.2,15.7,28.64,NW,325,0.0,0.0,64,0.00,,---,0.00,VWS V14.01,2013-04-03 11:23:00,
2013-04-03 07:24:00,26.2,15.7,28.64,NW,325,0.0,0.0,64,0.00,,---,0.00,VWS V14.01,2013-04-03 11:24:00,
2013-04-03 07:25:00,26.2,15.7,28.64,NW,325,0.0,0.0,64,0.00,,---,0.00,VWS V14.01,2013-04-03 11:25:00,
2013-04-03 07:28:00,26.2,15.7,28.64,NW,325,0.0,0.0,64,0.00,,---,0.00,VWS V14.01,2013-04-03 11:28:00,
2013-04-03 07:29:00,26.2,15.7,28.64,NW,325,0.0,0.0,64,0.00,,---,0.00,VWS V14.01,2013-04-03 11:29:00,
2013-04-03 07:30:00,26.2,15.7,28.64,NW,325,0.0,0.0,64,0.00,,---,0.00,VWS V14.01,2013-04-03 11:30:00,
2013-04-03 07:33:00,26.2,15.7,28.64,NW,325,0.0,0.0,64,0.00,,---,0.00,VWS V14.01,2013-04-03 11:33:00,
2013-04-03 07:34:00,26.2,15.7,28.64,NW,325,0.0,0.0,64,0.00,,---,0.00,VWS V14.01,2013-04-03 11:34:00,
2013-04-03 07:35:00,26.2,15.7,28.64,NW,325,0.0,0.0,64,0.00,,---,0.00,VWS V14.01,2013-04-03 11:35:00,
2013-04-03 07:38:00,26.2,15.7,28.64,NW,325,0.0,0.0,64,0.00,,---,0.00,VWS V14.01,2013-04-03 11:38:00,
2013-04-03 07:39:00,26.2,15.7,28.64,NW,325,0.0,0.0,64,0.00,,---,0.00,VWS V14.01,2013-04-03 11:39:00,
2013-04-03 07:40:00,26.2,15.7,28.64,NW,325,0.0,0.0,64,0.00,,---,0.00,VWS V14.01,2013-04-03 11:40:00,
2013-04-03 07:43:00,26.2,15.7,28.64,NW,325,0.0,0.0,64,0.00,,---,0.00,VWS V14.01,2013-04-03 11:43:00,
2013-04-03 07:44:00,26.2,15.7,28.64,NW,325,0.0,0.0,64,0.00,,---,0.00,VWS V14.01,2013-04-03 11:44:00,
2013-04-03 07:45:00,26.4,15.9,28.64,NW,325,0.0,0.0,64,0.00,,---,0.00,VWS V14.01,2013-04-03 11:45:00,
2013-04-03 07:48:00,26.4,16.2,28.65,NW,325,0.0,0.0,65,0.00,,---,0.00,VWS V14.01,2013-04-03 11:48:00,
2013-04-03 07:49:00,26.4,16.2,28.65,NW,325,0.0,0.0,65,0.00,,---,0.00,VWS V14.01,2013-04-03 11:49:00,
2013-04-03 07:50:00,26.4,16.2,28.65,NW,325,0.0,0.0,65,0.00,,---,0.00,VWS V14.01,2013-04-03 11:50:00,
2013-04-03 07:51:00,26.4,16.2,28.65,NW,325,0.0,0.0,65,0.00,,---,0.00,VWS V14.01,2013-04-03 11:51:00,
2013-04-03 07:53:00,26.6,16.4,28.65,NW,325,0.0,0.0,65,0.00,,---,0.00,VWS V14.01,2013-04-03 11:53:00,
2013-04-03 07:54:00,26.6,16.4,28.65,NW,325,0.0,0.0,65,0.00,,---,0.00,VWS V14.01,2013-04-03 11:54:00,
2013-04-03 07:55:00,26.6,16.4,28.65,NW,325,0.0,0.0,65,0.00,,---,0.00,VWS V14.01,2013-04-03 11:55:00,
2013-04-03 07:56:00,26.8,16.6,28.65,NW,325,0.0,0.0,65,0.00,,---,0.00,VWS V14.01,2013-04-03 11:56:00,
2013-04-03 07:58:00,26.8,16.6,28.65,NW,325,0.0,0.0,65,0.00,,---,0.00,VWS V14.01,2013-04-03 11:58:00,
2013-04-03 07:59:00,26.8,16.6,28.65,NW,325,0.0,0.0,65,0.00,,---,0.00,VWS V14.01,2013-04-03 11:59:00,
2013-04-03 08:00:00,26.8,17.0,28.65,NW,325,0.0,0.0,66,0.00,,---,0.00,VWS V14.01,2013-04-03 12:00:00,
2013-04-03 08:01:00,27.0,16.8,28.65,WSW,238,0.0,0.0,65,0.00,,---,0.00,VWS V14.01,2013-04-03 12:01:00,
2013-04-03 08:03:00,27.1,17.3,28.65,WSW,238,0.0,0.0,66,0.00,,---,0.00,VWS V14.01,2013-04-03 12:03:00,
2013-04-03 08:04:00,27.1,17.3,28.65,WSW,238,0.0,0.0,66,0.00,,---,0.00,VWS V14.01,2013-04-03 12:04:00,
2013-04-03 08:05:00,27.1,17.3,28.65,WSW,238,0.0,0.0,66,0.00,,---,0.00,VWS V14.01,2013-04-03 12:05:00,
2013-04-03 08:06:00,27.1,17.3,28.65,WSW,238,0.0,0.0,66,0.00,,---,0.00,VWS V14.01,2013-04-03 12:06:00,
2013-04-03 08:09:00,27.3,17.5,28.65,WSW,238,0.9,0.9,66,0.00,,---,0.00,VWS V14.01,2013-04-03 12:09:00,
2013-04-03 08:10:00,27.3,17.5,28.65,WSW,238,0.9,0.9,66,0.00,,---,0.00,VWS V14.01,2013-04-03 12:10:00,
2013-04-03 08:11:00,27.5,17.6,28.66,WSW,238,0.9,0.9,66,0.00,,---,0.00,VWS V14.01,2013-04-03 12:11:00,
2013-04-03 08:14:00,27.9,18.0,28.66,WSW,238,0.9,0.9,66,0.00,,---,0.00,VWS V14.01,2013-04-03 12:14:00,
2013-04-03 08:15:00,27.9,18.0,28.66,WSW,254,0.9,0.9,66,0.00,,---,0.00,VWS V14.01,2013-04-03 12:15:00,
2013-04-03 08:16:00,27.9,18.0,28.66,WSW,254,0.9,0.9,66,0.00,,---,0.00,VWS V14.01,2013-04-03 12:16:00,
2013-04-03 08:19:00,28.2,18.0,28.66,WSW,254,0.9,0.9,65,0.00,,---,0.00,VWS V14.01,2013-04-03 12:19:00,
2013-04-03 08:20:00,28.6,18.3,28.66,WSW,254,0.9,0.9,65,0.00,,---,0.00,VWS V14.01,2013-04-03 12:20:00,
2013-04-03 08:22:00,28.6,18.3,28.66,WSW,254,0.9,0.9,65,0.00,,---,0.00,VWS V14.01,2013-04-03 12:22:00,
2013-04-03 08:24:00,28.8,18.9,28.66,WSW,254,0.9,0.9,66,0.00,,---,0.00,VWS V14.01,2013-04-03 12:24:00,
2013-04-03 08:26:00,28.9,18.6,28.66,WSW,254,2.0,2.0,65,0.00,,---,0.00,VWS V14.01,2013-04-03 12:26:00,
2013-04-03 08:27:00,29.1,19.2,28.66,SW,221,0.9,0.9,66,0.00,,---,0.00,VWS V14.01,2013-04-03 12:27:00,
2013-04-03 08:29:00,29.5,19.6,28.66,SW,221,2.0,2.0,66,0.00,,---,0.00,VWS V14.01,2013-04-03 12:29:00,
2013-04-03 08:31:00,29.7,19.8,28.66,SW,221,2.0,2.0,66,0.00,,---,0.00,VWS V14.01,2013-04-03 12:31:00,
2013-04-03 08:33:00,30.0,20.0,28.66,WSW,246,2.0,2.0,66,0.00,,---,0.00,VWS V14.01,2013-04-03 12:33:00,
2013-04-03 08:34:00,30.2,20.2,28.66,WSW,246,2.0,2.0,66,0.00,,---,0.00,VWS V14.01,2013-04-03 12:34:00,
2013-04-03 08:36:00,30.4,20.4,28.66,WSW,240,2.0,2.0,66,0.00,,---,0.00,VWS V14.01,2013-04-03 12:36:00,
2013-04-03 08:38:00,30.7,20.3,28.66,SW,229,2.0,2.0,65,0.00,,---,0.00,VWS V14.01,2013-04-03 12:38:00,
2013-04-03 08:39:00,30.7,20.3,28.66,SW,229,2.0,2.0,65,0.00,,---,0.00,VWS V14.01,2013-04-03 12:39:00,
2013-04-03 08:41:00,30.9,20.5,28.65,SW,229,2.0,2.0,65,0.00,,---,0.00,VWS V14.01,2013-04-03 12:41:00,
2013-04-03 08:43:00,31.3,20.5,28.65,SW,229,2.0,2.0,64,0.00,,---,0.00,VWS V14.01,2013-04-03 12:43:00,
2013-04-03 08:44:00,31.3,20.5,28.65,SW,229,2.0,2.0,64,0.00,,---,0.00,VWS V14.01,2013-04-03 12:44:00,
2013-04-03 08:47:00,31.8,21.0,28.65,South,191,2.0,2.9,64,0.00,,---,0.00,VWS V14.01,2013-04-03 12:47:00,
2013-04-03 08:48:00,32.0,21.2,28.65,SSW,204,2.0,2.9,64,0.00,,---,0.00,VWS V14.01,2013-04-03 12:48:00,
2013-04-03 08:49:00,32.2,21.4,28.65,SSW,208,2.0,2.9,64,0.00,,---,0.00,VWS V14.01,2013-04-03 12:49:00,
2013-04-03 08:52:00,32.5,20.9,28.65,WNW,283,2.9,2.9,62,0.00,,---,0.00,VWS V14.01,2013-04-03 12:52:00,
2013-04-03 08:53:00,32.5,21.7,28.65,SW,223,2.9,2.9,64,0.00,,---,0.00,VWS V14.01,2013-04-03 12:53:00,
2013-04-03 08:54:00,32.7,21.5,28.65,SW,226,2.9,2.9,63,0.00,,---,0.00,VWS V14.01,2013-04-03 12:54:00,
2013-04-03 08:57:00,33.1,21.5,28.65,WSW,240,2.9,2.9,62,0.00,,---,0.00,VWS V14.01,2013-04-03 12:57:00,
2013-04-03 08:58:00,33.1,21.1,28.65,WSW,240,2.0,2.9,61,0.00,,---,0.00,VWS V14.01,2013-04-03 12:58:00,
2013-04-03 09:00:00,33.3,21.3,28.65,SSW,211,2.0,2.0,61,0.00,,---,0.00,VWS V14.01,2013-04-03 13:00:00,
2013-04-03 09:02:00,33.4,21.4,28.65,SSW,211,2.0,2.0,61,0.00,,---,0.00,VWS V14.01,2013-04-03 13:02:00,
2013-04-03 09:03:00,33.4,21.8,28.65,West,272,2.0,2.0,62,0.00,,---,0.00,VWS V14.01,2013-04-03 13:03:00,
2013-04-03 09:05:00,33.6,21.6,28.64,SW,229,2.0,2.0,61,0.00,,---,0.00,VWS V14.01,2013-04-03 13:05:00,
2013-04-03 09:07:00,33.8,21.8,28.64,WSW,242,2.0,2.0,61,0.00,,---,0.00,VWS V14.01,2013-04-03 13:07:00,
2013-04-03 09:08:00,33.8,21.4,28.64,West,278,2.0,2.0,60,0.00,,---,0.00,VWS V14.01,2013-04-03 13:08:00,
2013-04-03 09:10:00,34.0,22.0,28.64,West,278,2.0,2.0,61,0.00,,---,0.00,VWS V14.01,2013-04-03 13:10:00,
2013-04-03 09:12:00,34.2,22.2,28.64,NW,314,2.0,2.0,61,0.00,,---,0.00,VWS V14.01,2013-04-03 13:12:00,
2013-04-03 09:13:00,34.3,21.9,28.64,SW,236,2.0,2.0,60,0.00,,---,0.00,VWS V14.01,2013-04-03 13:13:00,
2013-04-03 09:15:00,34.3,21.9,28.64,SW,236,2.0,2.0,60,0.00,,---,0.00,VWS V14.01,2013-04-03 13:15:00,
2013-04-03 09:17:00,34.3,21.9,28.64,SW,236,0.9,2.0,60,0.00,,---,0.00,VWS V14.01,2013-04-03 13:17:00,
2013-04-03 09:18:00,34.5,22.1,28.64,WSW,247,0.9,2.0,60,0.00,,---,0.00,VWS V14.01,2013-04-03 13:18:00,
2013-04-03 09:20:00,34.7,22.2,28.64,WNW,286,2.0,2.0,60,0.00,,---,0.00,VWS V14.01,2013-04-03 13:20:00,
2013-04-03 09:22:00,34.9,22.0,28.64,SSW,206,2.0,2.0,59,0.00,,---,0.00,VWS V14.01,2013-04-03 13:22:00,
2013-04-03 09:23:00,35.1,22.2,28.64,West,278,2.0,2.0,59,0.00,,---,0.00,VWS V14.01,2013-04-03 13:23:00,
2013-04-03 09:25:00,35.1,22.2,28.64,West,278,2.9,2.9,59,0.00,,---,0.00,VWS V14.01,2013-04-03 13:25:00,
2013-04-03 09:27:00,35.2,22.7,28.64,SSW,209,2.9,2.9,60,0.00,,---,0.00,VWS V14.01,2013-04-03 13:27:00,
2013-04-03 09:28:00,35.2,21.9,28.64,SSW,192,2.9,2.9,58,0.00,,---,0.00,VWS V14.01,2013-04-03 13:28:00,
2013-04-03 09:30:00,35.4,22.1,28.64,WNW,296,2.9,2.9,58,0.00,,---,0.00,VWS V14.01,2013-04-03 13:30:00,
2013-04-03 09:32:00,35.6,22.3,28.64,NW,325,2.9,2.9,58,0.00,,---,0.00,VWS V14.01,2013-04-03 13:32:00,
2013-04-03 09:33:00,35.8,21.2,28.64,West,267,2.0,2.9,55,0.00,,---,0.00,VWS V14.01,2013-04-03 13:33:00,
2013-04-03 09:35:00,35.8,20.8,28.64,NW,324,2.9,2.9,54,0.00,,---,0.00,VWS V14.01,2013-04-03 13:35:00,
2013-04-03 09:37:00,36.0,21.4,28.64,West,279,2.9,2.9,55,0.00,,---,0.00,VWS V14.01,2013-04-03 13:37:00,
2013-04-03 09:39:00,36.1,21.1,28.64,WSW,239,2.9,2.9,54,0.00,,---,0.00,VWS V14.01,2013-04-03 13:39:00,
2013-04-03 09:40:00,36.1,21.1,28.64,SW,227,2.9,2.9,54,0.00,,---,0.00,VWS V14.01,2013-04-03 13:40:00,
2013-04-03 09:41:00,36.1,20.6,28.64,SW,221,4.0,4.0,53,0.00,,---,0.00,VWS V14.01,2013-04-03 13:41:00,
2013-04-03 09:42:00,36.3,20.8,28.64,SSW,200,4.0,4.0,53,0.00,,---,0.00,VWS V14.01,2013-04-03 13:42:00,
2013-04-03 09:44:00,36.5,21.5,28.64,WNW,299,4.0,4.0,54,0.00,,---,0.00,VWS V14.01,2013-04-03 13:44:00,
2013-04-03 09:45:00,36.7,21.6,28.64,SW,221,4.0,4.0,54,0.00,,---,0.00,VWS V14.01,2013-04-03 13:45:00,
2013-04-03 09:46:00,36.7,21.2,28.64,NNW,338,4.0,4.0,53,0.00,,---,0.00,VWS V14.01,2013-04-03 13:46:00,
2013-04-03 09:47:00,36.9,21.8,28.64,WSW,256,4.0,4.0,54,0.00,,---,0.00,VWS V14.01,2013-04-03 13:47:00,
2013-04-03 09:49:00,37.0,21.9,28.64,WSW,244,4.9,4.9,54,0.00,,---,0.00,VWS V14.01,2013-04-03 13:49:00,
2013-04-03 09:50:00,37.0,21.5,28.64,West,270,4.9,4.9,53,0.00,,---,0.00,VWS V14.01,2013-04-03 13:50:00,
2013-04-03 09:51:00,37.0,21.5,28.64,WNW,302,4.0,4.9,53,0.00,,---,0.00,VWS V14.01,2013-04-03 13:51:00,
2013-04-03 09:52:00,37.2,21.7,28.64,WNW,289,4.0,4.9,53,0.00,,---,0.00,VWS V14.01,2013-04-03 13:52:00,
2013-04-03 09:54:00,37.4,21.9,28.64,WSW,252,4.0,4.9,53,0.00,,---,0.00,VWS V14.01,2013-04-03 13:54:00,
2013-04-03 09:55:00,37.6,22.0,28.64,NW,309,4.0,4.9,53,0.00,,---,0.00,VWS V14.01,2013-04-03 13:55:00,
2013-04-03 09:56:00,37.6,22.0,28.64,NW,309,4.0,4.9,53,0.00,,---,0.00,VWS V14.01,2013-04-03 13:56:00,
2013-04-03 09:58:00,37.6,21.6,28.64,NNE,17,4.0,4.9,52,0.00,,---,0.00,VWS V14.01,2013-04-03 13:58:00,
2013-04-03 09:59:00,37.6,21.1,28.64,North,355,2.9,4.9,51,0.00,,---,0.00,VWS V14.01,2013-04-03 13:59:00,
2013-04-03 10:00:00,37.6,21.1,28.64,NW,315,4.0,4.0,51,0.00,,---,0.00,VWS V14.01,2013-04-03 14:00:00,
2013-04-03 10:01:00,37.6,21.1,28.64,NW,315,4.0,4.0,51,0.00,,---,0.00,VWS V14.01,2013-04-03 14:01:00,
2013-04-03 10:03:00,37.8,21.8,28.64,WNW,297,2.9,4.0,52,0.00,,---,0.00,VWS V14.01,2013-04-03 14:03:00,
2013-04-03 10:04:00,37.8,21.8,28.64,SSW,198,2.9,4.0,52,0.00,,---,0.00,VWS V14.01,2013-04-03 14:04:00,
2013-04-03 10:05:00,37.9,22.8,28.64,WNW,294,4.0,4.0,54,0.00,,---,0.00,VWS V14.01,2013-04-03 14:05:00,
2013-04-03 10:07:00,37.9,22.3,28.64,WNW,290,4.0,4.0,53,0.00,,---,0.00,VWS V14.01,2013-04-03 14:07:00,
2013-04-03 10:08:00,37.9,21.4,28.64,West,279,4.0,4.0,51,0.00,,---,0.00,VWS V14.01,2013-04-03 14:08:00,
2013-04-03 10:09:00,37.9,20.9,28.64,West,261,4.0,4.0,50,0.00,,---,0.00,VWS V14.01,2013-04-03 14:09:00,
2013-04-03 10:10:00,37.9,20.9,28.64,WSW,254,4.0,4.0,50,0.00,,---,0.00,VWS V14.01,2013-04-03 14:10:00,
2013-04-03 10:12:00,37.9,20.5,28.64,NW,312,4.9,4.9,49,0.00,,---,0.00,VWS V14.01,2013-04-03 14:12:00,
2013-04-03 10:13:00,37.9,20.5,28.64,North,355,4.9,4.9,49,0.00,,---,0.00,VWS V14.01,2013-04-03 14:13:00,
2013-04-03 10:14:00,38.1,21.6,28.64,SSE,160,4.9,4.9,51,0.00,,---,0.00,VWS V14.01,2013-04-03 14:14:00,
2013-04-03 10:15:00,38.1,21.1,28.64,WSW,242,4.9,4.9,50,0.00,,---,0.00,VWS V14.01,2013-04-03 14:15:00,
2013-04-03 10:17:00,38.1,21.1,28.64,WNW,289,4.9,4.9,50,0.00,,---,0.00,VWS V14.01,2013-04-03 14:17:00,
2013-04-03 10:18:00,38.1,21.6,28.65,North,350,4.9,4.9,51,0.00,,---,0.00,VWS V14.01,2013-04-03 14:18:00,
2013-04-03 10:19:00,38.1,21.6,28.64,West,272,4.9,4.9,51,0.00,,---,0.00,VWS V14.01,2013-04-03 14:19:00,
2013-04-03 10:20:00,38.1,21.1,28.64,NW,311,4.9,4.9,50,0.00,,---,0.00,VWS V14.01,2013-04-03 14:20:00,
2013-04-03 10:22:00,38.1,21.1,28.64,WNW,298,4.9,4.9,50,0.00,,---,0.00,VWS V14.01,2013-04-03 14:22:00,
2013-04-03 10:23:00,38.1,21.1,28.64,WNW,299,4.9,4.9,50,0.00,,---,0.00,VWS V14.01,2013-04-03 14:23:00,
2013-04-03 10:24:00,38.3,21.8,28.65,West,271,4.9,4.9,51,0.00,,---,0.00,VWS V14.01,2013-04-03 14:24:00,
2013-04-03 10:25:00,38.1,20.6,28.65,West,276,4.9,4.9,49,0.00,,---,0.00,VWS V14.01,2013-04-03 14:25:00,
2013-04-03 10:27:00,38.3,21.8,28.65,West,281,4.9,4.9,51,0.00,,---,0.00,VWS V14.01,2013-04-03 14:27:00,
2013-04-03 10:28:00,38.5,21.5,28.65,West,272,4.0,4.9,50,0.00,,---,0.00,VWS V14.01,2013-04-03 14:28:00,
2013-04-03 10:29:00,38.5,21.0,28.65,West,264,4.0,4.9,49,0.00,,---,0.00,VWS V14.01,2013-04-03 14:29:00,
2013-04-03 10:31:00,38.5,21.5,28.65,WNW,303,4.0,4.0,50,0.00,,---,0.00,VWS V14.01,2013-04-03 14:31:00,
2013-04-03 10:32:00,38.7,21.7,28.65,NW,311,4.0,4.0,50,0.00,,---,0.00,VWS V14.01,2013-04-03 14:32:00,
2013-04-03 10:33:00,38.7,21.7,28.65,NW,311,4.0,4.0,50,0.00,,---,0.00,VWS V14.01,2013-04-03 14:33:00,
2013-04-03 10:34:00,38.7,21.2,28.65,NW,311,4.9,4.9,49,0.00,,---,0.00,VWS V14.01,2013-04-03 14:34:00,
2013-04-03 10:37:00,38.8,23.1,28.65,WSW,251,4.0,4.9,53,0.00,,---,0.00,VWS V14.01,2013-04-03 14:37:00,
2013-04-03 10:38:00,38.8,21.3,28.65,West,279,4.9,4.9,49,0.00,,---,0.00,VWS V14.01,2013-04-03 14:38:00,
2013-04-03 10:39:00,38.8,21.3,28.65,WSW,255,4.9,4.9,49,0.00,,---,0.00,VWS V14.01,2013-04-03 14:39:00,
2013-04-03 10:42:00,39.0,22.0,28.66,West,275,4.9,4.9,50,0.00,,---,0.00,VWS V14.01,2013-04-03 14:42:00,
2013-04-03 10:43:00,38.8,20.8,28.66,SSW,213,4.9,4.9,48,0.00,,---,0.00,VWS V14.01,2013-04-03 14:43:00,
2013-04-03 10:44:00,39.0,22.0,28.66,SSW,193,4.9,4.9,50,0.00,,---,0.00,VWS V14.01,2013-04-03 14:44:00,
2013-04-03 10:47:00,39.4,22.8,28.65,WSW,254,4.0,4.9,51,0.00,,---,0.00,VWS V14.01,2013-04-03 14:47:00,
2013-04-03 10:48:00,39.4,22.8,28.65,WSW,254,4.0,4.9,51,0.00,,---,0.00,VWS V14.01,2013-04-03 14:48:00,
2013-04-03 10:50:00,39.4,21.8,28.65,WSW,252,4.0,4.9,49,0.00,,---,0.00,VWS V14.01,2013-04-03 14:50:00,
2013-04-03 10:52:00,39.6,22.0,28.66,North,355,4.0,4.9,49,0.00,,---,0.00,VWS V14.01,2013-04-03 14:52:00,
2013-04-03 10:53:00,39.6,22.0,28.66,North,355,4.0,4.9,49,0.00,,---,0.00,VWS V14.01,2013-04-03 14:53:00,
2013-04-03 10:55:00,39.6,22.0,28.66,NNE,19,4.0,4.9,49,0.00,,---,0.00,VWS V14.01,2013-04-03 14:55:00,
2013-04-03 10:58:00,39.7,22.1,28.66,NNE,17,4.0,4.9,49,0.00,,---,0.00,VWS V14.01,2013-04-03 14:58:00,
2013-04-03 11:00:00,39.6,21.0,28.66,NNW,335,4.9,4.9,47,0.00,,---,0.00,VWS V14.01,2013-04-03 15:00:00,
2013-04-03 11:03:00,39.7,22.6,28.66,West,261,4.0,4.9,50,0.00,,---,0.00,VWS V14.01,2013-04-03 15:03:00,
2013-04-03 11:05:00,39.9,21.3,28.66,SSW,198,4.9,4.9,47,0.00,,---,0.00,VWS V14.01,2013-04-03 15:05:00,
2013-04-03 11:08:00,40.3,23.1,28.66,West,259,4.9,4.9,50,0.00,,---,0.00,VWS V14.01,2013-04-03 15:08:00,
2013-04-03 11:09:00,40.3,22.2,28.66,West,264,4.9,4.9,48,0.00,,---,0.00,VWS V14.01,2013-04-03 15:09:00,
2013-04-03 11:10:00,40.5,21.9,28.66,West,279,4.0,4.9,47,0.00,,---,0.00,VWS V14.01,2013-04-03 15:10:00,
2013-04-03 11:13:00,40.5,21.4,28.66,WSW,258,4.9,4.9,46,0.00,,---,0.00,VWS V14.01,2013-04-03 15:13:00,
2013-04-03 11:14:00,40.5,21.9,28.66,NW,311,4.9,4.9,47,0.00,,---,0.00,VWS V14.01,2013-04-03 15:14:00,
2013-04-03 11:15:00,40.6,22.5,28.66,South,176,4.9,4.9,48,0.00,,---,0.00,VWS V14.01,2013-04-03 15:15:00,
2013-04-03 11:18:00,40.6,20.9,28.66,NW,315,4.9,4.9,45,0.00,,---,0.00,VWS V14.01,2013-04-03 15:18:00,
2013-04-03 11:19:00,40.6,20.9,28.66,SSW,207,4.9,4.9,45,0.00,,---,0.00,VWS V14.01,2013-04-03 15:19:00,
2013-04-03 11:20:00,40.5,21.4,28.66,NE,36,4.9,4.9,46,0.00,,---,0.00,VWS V14.01,2013-04-03 15:20:00,
2013-04-03 11:23:00,40.5,20.9,28.67,NW,324,4.0,4.9,45,0.00,,---,0.00,VWS V14.01,2013-04-03 15:23:00,
2013-04-03 11:24:00,40.5,20.9,28.66,WSW,252,4.0,4.9,45,0.00,,---,0.00,VWS V14.01,2013-04-03 15:24:00,
2013-04-03 11:25:00,40.5,21.4,28.66,SSE,167,4.9,4.9,46,0.00,,---,0.00,VWS V14.01,2013-04-03 15:25:00,
2013-04-03 11:28:00,40.8,21.6,28.67,West,270,4.0,4.9,46,0.00,,---,0.00,VWS V14.01,2013-04-03 15:28:00,
2013-04-03 11:29:00,40.8,21.6,28.67,West,270,4.0,4.9,46,0.00,,---,0.00,VWS V14.01,2013-04-03 15:29:00,
2013-04-03 11:30:00,40.8,21.6,28.67,SE,136,4.0,4.0,46,0.00,,---,0.00,VWS V14.01,2013-04-03 15:30:00,
2013-04-03 11:33:00,40.8,20.6,28.67,WNW,299,4.0,4.0,44,0.00,,---,0.00,VWS V14.01,2013-04-03 15:33:00,
2013-04-03 11:34:00,40.8,20.6,28.67,WNW,299,4.0,4.0,44,0.00,,---,0.00,VWS V14.01,2013-04-03 15:34:00,
2013-04-03 11:35:00,40.8,20.6,28.67,WNW,301,4.9,4.9,44,0.00,,---,0.00,VWS V14.01,2013-04-03 15:35:00,
2013-04-03 11:39:00,40.8,21.1,28.67,SSW,206,4.9,4.9,45,0.00,,---,0.00,VWS V14.01,2013-04-03 15:39:00,
2013-04-03 11:40:00,40.8,21.6,28.66,WNW,286,4.9,4.9,46,0.00,,---,0.00,VWS V14.01,2013-04-03 15:40:00,
2013-04-03 11:41:00,40.8,21.1,28.66,SE,140,4.9,4.9,45,0.00,,---,0.00,VWS V14.01,2013-04-03 15:41:00,
2013-04-03 11:44:00,40.8,20.6,28.66,SW,219,4.9,4.9,44,0.00,,---,0.00,VWS V14.01,2013-04-03 15:44:00,
2013-04-03 11:45:00,40.8,20.6,28.66,SW,219,4.9,4.9,44,0.00,,---,0.00,VWS V14.01,2013-04-03 15:45:00,
2013-04-03 11:46:00,40.8,21.1,28.66,WSW,238,4.9,4.9,45,0.00,,---,0.00,VWS V14.01,2013-04-03 15:46:00,
2013-04-03 11:49:00,40.8,22.1,28.66,SSW,204,4.0,4.9,47,0.00,,---,0.00,VWS V14.01,2013-04-03 15:49:00,
2013-04-03 11:50:00,40.6,22.0,28.66,South,179,4.0,4.9,47,0.00,,---,0.00,VWS V14.01,2013-04-03 15:50:00,
2013-04-03 11:51:00,40.8,22.6,28.66,SW,215,2.9,4.9,48,0.00,,---,0.00,VWS V14.01,2013-04-03 15:51:00,
2013-04-03 11:54:00,40.6,20.9,28.66,West,275,4.0,4.9,45,0.00,,---,0.00,VWS V14.01,2013-04-03 15:54:00,
2013-04-03 11:55:00,40.5,21.4,28.66,West,268,4.0,4.9,46,0.00,,---,0.00,VWS V14.01,2013-04-03 15:55:00,
2013-04-03 11:56:00,40.5,21.9,28.66,SW,217,4.9,4.9,47,0.00,,---,0.00,VWS V14.01,2013-04-03 15:56:00,
2013-04-03 11:59:00,39.9,20.3,28.66,NW,308,6.0,6.0,45,0.00,,---,0.00,VWS V14.01,2013-04-03 15:59:00,
2013-04-03 12:00:00,39.9,19.8,28.66,NNE,15,6.0,6.0,44,0.00,,---,0.00,VWS V14.01,2013-04-03 16:00:00,
2013-04-03 12:01:00,39.7,20.1,28.65,NW,309,6.0,6.0,45,0.00,,---,0.00,VWS V14.01,2013-04-03 16:01:00,
2013-04-03 12:04:00,39.7,20.6,28.65,North,5,4.9,6.0,46,0.00,,---,0.00,VWS V14.01,2013-04-03 16:04:00,
2013-04-03 12:05:00,39.7,20.6,28.64,North,0,4.9,6.0,46,0.00,,---,0.00,VWS V14.01,2013-04-03 16:05:00,
2013-04-03 12:06:00,39.9,20.8,28.64,NW,314,4.0,6.0,46,0.00,,---,0.00,VWS V14.01,2013-04-03 16:06:00,
2013-04-03 12:09:00,40.1,20.5,28.65,WNW,298,4.0,6.0,45,0.00,,---,0.00,VWS V14.01,2013-04-03 16:09:00,
2013-04-03 12:10:00,40.1,20.0,28.64,WNW,292,4.0,6.0,44,0.00,,---,0.00,VWS V14.01,2013-04-03 16:10:00,
2013-04-03 12:11:00,40.3,21.2,28.65,South,184,4.9,6.0,46,0.00,,---,0.00,VWS V14.01,2013-04-03 16:11:00,
2013-04-03 12:14:00,40.6,20.9,28.65,NNE,26,4.9,6.0,45,0.00,,---,0.00,VWS V14.01,2013-04-03 16:14:00,
2013-04-03 12:15:00,40.6,20.9,28.65,NNE,26,4.9,6.0,45,0.00,,---,0.00,VWS V14.01,2013-04-03 16:15:00,
2013-04-03 12:17:00,40.8,21.6,28.64,West,268,4.9,6.0,46,0.00,,---,0.00,VWS V14.01,2013-04-03 16:17:00,
2013-04-03 12:20:00,41.2,21.0,28.65,NW,311,4.0,6.0,44,0.00,,---,0.00,VWS V14.01,2013-04-03 16:20:00,
2013-04-03 12:22:00,41.2,21.0,28.64,SW,236,4.0,6.0,44,0.00,,---,0.00,VWS V14.01,2013-04-03 16:22:00,
2013-04-03 12:25:00,41.2,21.0,28.65,WNW,288,4.0,6.0,44,0.00,,---,0.00,VWS V14.01,2013-04-03 16:25:00,
2013-04-03 12:26:00,41.2,21.5,28.65,WNW,288,4.0,6.0,45,0.00,,---,0.00,VWS V14.01,2013-04-03 16:26:00,
2013-04-03 12:27:00,41.2,21.5,28.65,WNW,288,4.0,6.0,45,0.00,,---,0.00,VWS V14.01,2013-04-03 16:27:00,
2013-04-03 12:30:00,41.4,21.1,28.65,NW,311,4.0,4.0,44,0.00,,---,0.00,VWS V14.01,2013-04-03 16:30:00,
2013-04-03 12:32:00,41.5,21.8,28.64,NW,313,2.9,4.0,45,0.00,,---,0.00,VWS V14.01,2013-04-03 16:32:00,
2013-04-03 12:35:00,41.7,21.4,28.65,WSW,249,4.0,4.0,44,0.00,,---,0.00,VWS V14.01,2013-04-03 16:35:00,
2013-04-03 12:37:00,41.7,20.9,28.64,NE,36,4.9,4.9,43,0.00,,---,0.00,VWS V14.01,2013-04-03 16:37:00,
2013-04-03 12:40:00,41.5,20.7,28.64,West,259,6.0,6.0,43,0.00,,---,0.00,VWS V14.01,2013-04-03 16:40:00,
2013-04-03 12:42:00,41.4,20.6,28.64,West,269,6.0,6.0,43,0.00,,---,0.00,VWS V14.01,2013-04-03 16:42:00,
2013-04-03 12:45:00,41.2,20.4,28.64,NNW,348,4.9,6.0,43,0.00,,---,0.00,VWS V14.01,2013-04-03 16:45:00,
2013-04-03 12:47:00,41.2,20.4,28.64,WNW,285,4.9,6.0,43,0.00,,---,0.00,VWS V14.01,2013-04-03 16:47:00,
2013-04-03 12:50:00,41.4,22.2,28.64,WSW,237,4.9,6.0,46,0.00,,---,0.00,VWS V14.01,2013-04-03 16:50:00,
2013-04-03 12:52:00,41.4,20.6,28.64,NW,304,4.9,6.0,43,0.00,,---,0.00,VWS V14.01,2013-04-03 16:52:00,
2013-04-03 12:55:00,41.7,22.5,28.64,West,279,4.9,6.0,46,0.00,,---,0.00,VWS V14.01,2013-04-03 16:55:00,
2013-04-03 12:57:00,41.9,21.6,28.63,SSW,211,4.0,6.0,44,0.00,,---,0.00,VWS V14.01,2013-04-03 16:57:00,
2013-04-03 12:58:00,42.1,21.8,28.64,SW,227,4.0,6.0,44,0.00,,---,0.00,VWS V14.01,2013-04-03 16:58:00,
2013-04-03 13:00:00,42.4,21.5,28.64,SSW,207,4.0,4.0,43,0.00,,---,0.00,VWS V14.01,2013-04-03 17:00:00,
2013-04-03 13:02:00,42.6,21.7,28.63,NW,315,4.0,4.0,43,0.00,,---,0.00,VWS V14.01,2013-04-03 17:02:00,
2013-04-03 13:03:00,42.6,21.7,28.63,NW,315,4.0,4.0,43,0.00,,---,0.00,VWS V14.01,2013-04-03 17:03:00,
2013-04-03 13:05:00,43.0,22.6,28.63,West,267,4.9,4.9,44,0.00,,---,0.00,VWS V14.01,2013-04-03 17:05:00,
2013-04-03 13:08:00,43.2,22.8,28.63,SW,227,4.9,4.9,44,0.00,,---,0.00,VWS V14.01,2013-04-03 17:08:00,
2013-04-03 13:10:00,43.3,22.9,28.63,NW,316,4.9,6.0,44,0.00,,---,0.00,VWS V14.01,2013-04-03 17:10:00,
2013-04-03 13:13:00,43.5,21.4,29.43,NNW,329,11.0,18.0,41,0.00,,,0.00,meteohub,2013-04-03 17:13:00,
2013-04-03 13:14:00,43.5,21.4,28.63,WNW,290,6.0,6.0,41,0.00,,---,0.00,VWS V14.01,2013-04-03 17:14:00,
2013-04-03 13:16:00,43.7,21.0,28.63,SW,230,6.0,6.0,40,0.00,,---,0.00,VWS V14.01,2013-04-03 17:16:00,
2013-04-03 13:18:00,43.7,21.6,28.63,SSW,210,4.9,6.0,41,0.00,,---,0.00,VWS V14.01,2013-04-03 17:18:00,
2013-04-03 13:19:00,43.7,21.6,28.63,SSW,210,4.9,6.0,41,0.00,,---,0.00,VWS V14.01,2013-04-03 17:19:00,
2013-04-03 13:20:00,43.9,21.7,28.63,NNW,333,6.0,6.0,41,0.00,,---,0.00,VWS V14.01,2013-04-03 17:20:00,
2013-04-03 13:24:00,44.2,23.7,28.63,North,5,6.0,6.0,44,0.00,,---,0.00,VWS V14.01,2013-04-03 17:24:00,
2013-04-03 13:26:00,44.2,21.4,28.62,SW,221,4.9,6.0,40,0.00,,---,0.00,VWS V14.01,2013-04-03 17:26:00,
2013-04-03 13:29:00,44.2,22.0,28.63,West,271,4.9,6.0,41,0.00,,---,0.00,VWS V14.01,2013-04-03 17:29:00,
2013-04-03 13:31:00,44.2,21.4,28.62,WNW,302,4.9,4.9,40,0.00,,---,0.00,VWS V14.01,2013-04-03 17:31:00,
2013-04-03 13:34:00,44.2,22.0,28.62,WSW,255,4.0,4.9,41,0.00,,---,0.00,VWS V14.01,2013-04-03 17:34:00,
2013-04-03 13:35:00,44.2,21.4,28.62,NW,305,4.0,4.9,40,0.00,,---,0.00,VWS V14.01,2013-04-03 17:35:00,
2013-04-03 13:37:00,44.2,21.4,28.62,WNW,302,2.9,4.9,40,0.00,,---,0.00,VWS V14.01,2013-04-03 17:37:00,
2013-04-03 13:39:00,44.1,22.5,28.63,North,349,4.0,4.9,42,0.00,,---,0.00,VWS V14.01,2013-04-03 17:39:00,
2013-04-03 13:40:00,44.1,21.9,28.62,WSW,244,4.0,4.9,41,0.00,,---,0.00,VWS V14.01,2013-04-03 17:40:00,
2013-04-03 13:42:00,43.9,20.6,28.62,West,279,4.9,4.9,39,0.00,,---,0.00,VWS V14.01,2013-04-03 17:42:00,
2013-04-03 13:45:00,43.5,21.4,28.62,West,269,4.9,4.9,41,0.00,,---,0.00,VWS V14.01,2013-04-03 17:45:00,
2013-04-03 13:47:00,43.5,21.4,28.62,WNW,284,6.0,6.0,41,0.00,,---,0.00,VWS V14.01,2013-04-03 17:47:00,
2013-04-03 13:50:00,43.9,21.7,28.62,West,272,4.9,6.0,41,0.00,,---,0.00,VWS V14.01,2013-04-03 17:50:00,
2013-04-03 13:52:00,44.1,22.5,28.62,West,260,4.9,6.0,42,0.00,,---,0.00,VWS V14.01,2013-04-03 17:52:00,
2013-04-03 13:55:00,43.9,20.6,28.62,NNW,333,6.0,6.0,39,0.00,,---,0.00,VWS V14.01,2013-04-03 17:55:00,
2013-04-03 13:57:00,43.9,21.2,28.62,West,265,6.0,6.0,40,0.00,,---,0.00,VWS V14.01,2013-04-03 17:57:00,
2013-04-03 14:00:00,43.3,20.6,28.62,WSW,257,6.0,6.0,40,0.00,,---,0.00,VWS V14.01,2013-04-03 18:00:00,
2013-04-03 14:01:00,43.3,20.6,28.61,West,259,6.0,6.0,40,0.00,,---,0.00,VWS V14.01,2013-04-03 18:01:00,
2013-04-03 14:02:00,43.3,21.2,28.62,SSW,205,6.9,6.9,41,0.00,,---,0.00,VWS V14.01,2013-04-03 18:02:00,
2013-04-03 14:05:00,43.5,20.2,28.62,WSW,258,6.0,6.9,39,0.00,,---,0.00,VWS V14.01,2013-04-03 18:05:00,
2013-04-03 14:06:00,43.5,20.8,28.62,SSW,200,6.9,6.9,40,0.00,,---,0.00,VWS V14.01,2013-04-03 18:06:00,
2013-04-03 14:07:00,43.5,20.2,28.61,WSW,256,6.9,6.9,39,0.00,,---,0.00,VWS V14.01,2013-04-03 18:07:00,
2013-04-03 14:10:00,43.5,21.4,28.61,West,274,6.9,6.9,41,0.00,,---,0.00,VWS V14.01,2013-04-03 18:10:00,
2013-04-03 14:11:00,43.9,21.7,28.61,WSW,241,6.0,6.9,41,0.00,,---,0.00,VWS V14.01,2013-04-03 18:11:00,
2013-04-03 14:12:00,43.9,21.7,28.61,WSW,241,6.0,6.9,41,0.00,,---,0.00,VWS V14.01,2013-04-03 18:12:00,
2013-04-03 14:15:00,44.1,21.3,28.61,SW,217,6.0,6.9,40,0.00,,---,0.00,VWS V14.01,2013-04-03 18:15:00,
2013-04-03 14:17:00,44.1,20.7,28.62,NE,35,6.0,6.9,39,0.00,,---,0.00,VWS V14.01,2013-04-03 18:17:00,
2013-04-03 14:20:00,44.1,21.3,28.61,NW,309,4.9,6.9,40,0.00,,---,0.00,VWS V14.01,2013-04-03 18:20:00,
2013-04-03 14:22:00,44.1,21.3,28.61,NNW,334,4.0,6.9,40,0.00,,---,0.00,VWS V14.01,2013-04-03 18:22:00,
2013-04-03 14:23:00,44.1,20.7,28.61,NNE,18,4.9,6.9,39,0.00,,---,0.00,VWS V14.01,2013-04-03 18:23:00,
2013-04-03 14:25:00,43.9,21.2,28.61,WSW,253,4.9,6.9,40,0.00,,---,0.00,VWS V14.01,2013-04-03 18:25:00,
2013-04-03 14:27:00,44.1,21.9,28.62,NNE,30,4.9,6.9,41,0.00,,---,0.00,VWS V14.01,2013-04-03 18:27:00,
2013-04-03 14:28:00,44.1,22.5,28.61,West,262,4.9,6.9,42,0.00,,---,0.00,VWS V14.01,2013-04-03 18:28:00,
2013-04-03 14:31:00,44.2,21.4,28.62,West,269,4.9,4.9,40,0.00,,---,0.00,VWS V14.01,2013-04-03 18:31:00,
2013-04-03 14:32:00,44.2,20.8,28.61,WNW,294,4.9,4.9,39,0.00,,---,0.00,VWS V14.01,2013-04-03 18:32:00,
2013-04-03 14:33:00,44.2,19.6,28.61,WNW,291,4.0,4.9,37,0.00,,---,0.00,VWS V14.01,2013-04-03 18:33:00,
2013-04-03 14:36:00,44.1,21.3,28.62,NNE,30,4.0,4.9,40,0.00,,---,0.00,VWS V14.01,2013-04-03 18:36:00,
2013-04-03 14:37:00,43.9,20.6,28.61,NNW,342,4.0,4.9,39,0.00,,---,0.00,VWS V14.01,2013-04-03 18:37:00,
2013-04-03 14:38:00,43.9,20.6,28.61,NNW,338,4.0,4.9,39,0.00,,---,0.00,VWS V14.01,2013-04-03 18:38:00,
2013-04-03 14:39:00,44.1,21.3,28.61,NNW,338,4.0,4.9,40,0.00,,---,0.00,VWS V14.01,2013-04-03 18:39:00,
2013-04-03 14:41:00,44.2,20.8,28.61,NW,324,4.0,4.9,39,0.00,,---,0.00,VWS V14.01,2013-04-03 18:41:00,
2013-04-03 14:42:00,44.2,22.6,28.61,West,273,4.0,4.9,42,0.00,,---,0.00,VWS V14.01,2013-04-03 18:42:00,
2013-04-03 14:43:00,44.4,22.2,28.61,SW,223,4.0,4.9,41,0.00,,---,0.00,VWS V14.01,2013-04-03 18:43:00,
2013-04-03 14:44:00,44.8,21.4,28.61,SSW,208,4.0,4.9,39,0.00,,---,0.00,VWS V14.01,2013-04-03 18:44:00,
2013-04-03 14:46:00,45.0,20.9,28.61,SW,235,4.0,4.9,38,0.00,,---,0.00,VWS V14.01,2013-04-03 18:46:00,
2013-04-03 14:47:00,45.1,21.6,28.61,WNW,290,4.0,4.9,39,0.00,,---,0.00,VWS V14.01,2013-04-03 18:47:00,
2013-04-03 14:48:00,45.1,21.6,28.61,WNW,290,4.0,4.9,39,0.00,,---,0.00,VWS V14.01,2013-04-03 18:48:00,
2013-04-03 14:49:00,45.3,21.8,28.61,NW,308,4.0,4.9,39,0.00,,---,0.00,VWS V14.01,2013-04-03 18:49:00,
2013-04-03 14:52:00,45.5,22.6,28.61,West,281,4.0,4.9,40,0.00,,---,0.00,VWS V14.01,2013-04-03 18:52:00,
2013-04-03 14:53:00,45.7,22.8,28.61,West,279,4.0,4.9,40,0.00,,---,0.00,VWS V14.01,2013-04-03 18:53:00,
2013-04-03 14:55:00,45.7,22.2,28.61,NNE,32,4.9,4.9,39,0.00,,---,0.00,VWS V14.01,2013-04-03 18:55:00,
2013-04-03 14:57:00,45.7,21.6,28.61,NNE,24,4.9,4.9,38,0.00,,---,0.00,VWS V14.01,2013-04-03 18:57:00,
2013-04-03 14:58:00,45.5,21.4,28.61,North,351,4.9,4.9,38,0.00,,---,0.00,VWS V14.01,2013-04-03 18:58:00,
2013-04-03 15:00:00,45.3,21.2,28.61,SW,233,4.9,4.9,38,0.00,,---,0.00,VWS V14.01,2013-04-03 19:00:00,
2013-04-03 15:02:00,45.3,22.4,28.61,SW,218,4.9,4.9,40,0.00,,---,0.00,VWS V14.01,2013-04-03 19:02:00,
2013-04-03 15:03:00,45.3,22.4,28.61,NNE,22,6.0,6.0,40,0.00,,---,0.00,VWS V14.01,2013-04-03 19:03:00,
2013-04-03 15:04:00,45.5,21.4,28.61,NW,306,6.0,6.0,38,0.00,,---,0.00,VWS V14.01,2013-04-03 19:04:00,
2013-04-03 15:05:00,45.3,21.2,28.62,NW,321,6.0,6.0,38,0.00,,---,0.00,VWS V14.01,2013-04-03 19:05:00,
2013-04-03 15:07:00,45.3,22.4,28.62,NW,304,4.9,6.0,40,0.00,,---,0.00,VWS V14.01,2013-04-03 19:07:00,
2013-04-03 15:08:00,45.3,20.6,28.62,WNW,302,4.9,6.0,37,0.00,,---,0.00,VWS V14.01,2013-04-03 19:08:00,
2013-04-03 15:09:00,45.1,20.4,28.62,NW,308,4.9,6.0,37,0.00,,---,0.00,VWS V14.01,2013-04-03 19:09:00,
2013-04-03 15:10:00,45.1,21.0,28.62,WNW,291,4.9,6.0,38,0.00,,---,0.00,VWS V14.01,2013-04-03 19:10:00,
2013-04-03 15:12:00,45.0,22.1,28.62,WSW,247,4.9,6.0,40,0.00,,---,0.00,VWS V14.01,2013-04-03 19:12:00,
2013-04-03 15:13:00,45.0,20.3,28.62,NNW,329,4.0,6.0,37,0.00,,---,0.00,VWS V14.01,2013-04-03 19:13:00,
2013-04-03 15:14:00,45.0,20.3,28.62,WNW,283,4.0,6.0,37,0.00,,---,0.00,VWS V14.01,2013-04-03 19:14:00,
2013-04-03 15:15:00,44.8,20.8,28.61,NW,306,4.0,6.0,38,0.00,,---,0.00,VWS V14.01,2013-04-03 19:15:00,
2013-04-03 15:17:00,44.6,20.0,28.61,SW,214,4.9,6.0,37,0.00,,---,0.00,VWS V14.01,2013-04-03 19:17:00,
2013-04-03 15:18:00,44.4,20.4,28.61,NW,304,4.0,6.0,38,0.00,,---,0.00,VWS V14.01,2013-04-03 19:18:00,
2013-04-03 15:20:00,44.4,20.4,28.61,SSW,206,4.9,6.0,38,0.00,,---,0.00,VWS V14.01,2013-04-03 19:20:00,
2013-04-03 15:22:00,44.4,21.6,28.61,WSW,257,4.9,6.0,40,0.00,,---,0.00,VWS V14.01,2013-04-03 19:22:00,
2013-04-03 15:23:00,44.4,21.6,28.61,WSW,257,4.9,6.0,40,0.00,,---,0.00,VWS V14.01,2013-04-03 19:23:00,
2013-04-03 15:25:00,44.6,21.2,28.61,NW,316,4.9,6.0,39,0.00,,---,0.00,VWS V14.01,2013-04-03 19:25:00,
2013-04-03 15:27:00,44.8,20.8,28.61,SW,221,4.9,6.0,38,0.00,,---,0.00,VWS V14.01,2013-04-03 19:27:00,
2013-04-03 15:28:00,44.8,20.8,28.61,SW,221,4.9,6.0,38,0.00,,---,0.00,VWS V14.01,2013-04-03 19:28:00,
2013-04-03 15:30:00,45.0,22.7,28.61,WSW,246,4.9,4.9,41,0.00,,---,0.00,VWS V14.01,2013-04-03 19:30:00,
2013-04-03 15:33:00,45.1,20.4,28.62,West,276,6.0,6.0,37,0.00,,---,0.00,VWS V14.01,2013-04-03 19:33:00,
2013-04-03 15:35:00,45.1,20.4,28.62,West,279,6.0,6.0,37,0.00,,---,0.00,VWS V14.01,2013-04-03 19:35:00,
2013-04-03 15:38:00,45.3,21.2,28.62,NW,304,4.9,6.0,38,0.00,,---,0.00,VWS V14.01,2013-04-03 19:38:00,
2013-04-03 15:39:00,45.5,22.0,28.62,WNW,302,4.9,6.0,39,0.00,,---,0.00,VWS V14.01,2013-04-03 19:39:00,
2013-04-03 15:40:00,45.5,22.0,28.62,WNW,302,4.9,6.0,39,0.00,,---,0.00,VWS V14.01,2013-04-03 19:40:00,
2013-04-03 15:43:00,45.5,20.8,28.61,NNE,22,4.9,6.0,37,0.00,,---,0.00,VWS V14.01,2013-04-03 19:43:00,
2013-04-03 15:44:00,45.5,20.8,28.62,NNE,16,4.9,6.0,37,0.00,,---,0.00,VWS V14.01,2013-04-03 19:44:00,
2013-04-03 15:45:00,45.3,20.6,28.62,NNW,335,4.9,6.0,37,0.00,,---,0.00,VWS V14.01,2013-04-03 19:45:00,
2013-04-03 15:48:00,45.0,19.7,28.62,West,277,6.0,6.0,36,0.00,,---,0.00,VWS V14.01,2013-04-03 19:48:00,
2013-04-03 15:49:00,44.6,20.0,28.61,SW,220,6.0,6.0,37,0.00,,---,0.00,VWS V14.01,2013-04-03 19:49:00,
2013-04-03 15:50:00,44.2,19.0,28.61,NNE,16,6.0,6.0,36,0.00,,---,0.00,VWS V14.01,2013-04-03 19:50:00,
2013-04-03 15:53:00,44.1,19.5,28.62,NNE,23,4.9,6.0,37,0.00,,---,0.00,VWS V14.01,2013-04-03 19:53:00,
2013-04-03 15:55:00,44.1,20.1,28.62,NW,315,4.9,6.0,38,0.00,,---,0.00,VWS V14.01,2013-04-03 19:55:00,
2013-04-03 15:56:00,43.9,19.3,28.62,North,5,4.9,6.0,37,0.00,,---,0.00,VWS V14.01,2013-04-03 19:56:00,
2013-04-03 15:58:00,43.5,19.6,28.62,West,264,4.9,6.0,38,0.00,,---,0.00,VWS V14.01,2013-04-03 19:58:00,
2013-04-03 16:00:00,43.7,19.8,28.62,West,264,4.9,4.9,38,0.00,,---,0.00,VWS V14.01,2013-04-03 20:00:00,
2013-04-03 16:01:00,43.7,19.8,28.62,WNW,296,4.9,4.9,38,0.00,,---,0.00,VWS V14.01,2013-04-03 20:01:00,
2013-04-03 16:02:00,43.7,20.4,28.62,West,261,4.9,4.9,39,0.00,,---,0.00,VWS V14.01,2013-04-03 20:02:00,
2013-04-03 16:03:00,43.7,19.1,28.62,WSW,255,6.0,6.0,37,0.00,,---,0.00,VWS V14.01,2013-04-03 20:03:00,
2013-04-03 16:05:00,43.5,18.3,28.62,NW,307,6.9,6.9,36,0.00,,---,0.00,VWS V14.01,2013-04-03 20:05:00,
2013-04-03 16:06:00,43.3,18.8,28.62,WNW,287,6.9,6.9,37,0.00,,---,0.00,VWS V14.01,2013-04-03 20:06:00,
2013-04-03 16:07:00,43.3,18.8,28.63,WNW,296,6.0,6.9,37,0.00,,---,0.00,VWS V14.01,2013-04-03 20:07:00,
2013-04-03 16:08:00,43.2,18.1,28.62,WNW,300,6.0,6.9,36,0.00,,---,0.00,VWS V14.01,2013-04-03 20:08:00,
2013-04-03 16:10:00,43.0,18.5,28.63,WSW,254,6.0,6.9,37,0.00,,---,0.00,VWS V14.01,2013-04-03 20:10:00,
2013-04-03 16:11:00,42.8,19.0,28.63,NE,39,6.0,6.9,38,0.00,,---,0.00,VWS V14.01,2013-04-03 20:11:00,
2013-04-03 16:12:00,42.6,18.2,28.63,NNW,333,4.9,6.9,37,0.00,,---,0.00,VWS V14.01,2013-04-03 20:12:00,
2013-04-03 16:13:00,42.6,18.2,28.63,SSW,208,4.9,6.9,37,0.00,,---,0.00,VWS V14.01,2013-04-03 20:13:00,
2013-04-03 16:15:00,42.4,18.6,28.63,NW,308,4.0,6.9,38,0.00,,---,0.00,VWS V14.01,2013-04-03 20:15:00,
2013-04-03 16:17:00,42.4,18.6,28.63,WNW,300,4.0,6.9,38,0.00,,---,0.00,VWS V14.01,2013-04-03 20:17:00,
2013-04-03 16:18:00,42.4,18.6,28.63,North,5,4.0,6.9,38,0.00,,---,0.00,VWS V14.01,2013-04-03 20:18:00,
2013-04-03 16:20:00,42.6,20.0,28.63,SW,232,2.9,6.9,40,0.00,,---,0.00,VWS V14.01,2013-04-03 20:20:00,
2013-04-03 16:22:00,43.0,19.8,28.63,West,270,4.0,6.9,39,0.00,,---,0.00,VWS V14.01,2013-04-03 20:22:00,
2013-04-03 16:23:00,43.2,19.9,28.63,North,0,4.0,6.9,39,0.00,,---,0.00,VWS V14.01,2013-04-03 20:23:00,
2013-04-03 16:25:00,43.7,21.0,28.63,WNW,283,4.9,6.9,40,0.00,,---,0.00,VWS V14.01,2013-04-03 20:25:00,
2013-04-03 16:27:00,43.9,21.7,28.63,NNW,336,4.9,6.9,41,0.00,,---,0.00,VWS V14.01,2013-04-03 20:27:00,
2013-04-03 16:29:00,44.2,21.4,28.63,West,279,4.9,6.9,40,0.00,,---,0.00,VWS V14.01,2013-04-03 20:29:00,
2013-04-03 16:31:00,44.4,19.8,28.63,West,272,4.9,4.9,37,0.00,,---,0.00,VWS V14.01,2013-04-03 20:31:00,
2013-04-03 16:32:00,44.4,19.8,28.64,WNW,300,4.9,4.9,37,0.00,,---,0.00,VWS V14.01,2013-04-03 20:32:00,
2013-04-03 16:34:00,44.6,20.0,28.63,WSW,256,4.0,4.9,37,0.00,,---,0.00,VWS V14.01,2013-04-03 20:34:00,
2013-04-03 16:35:00,44.8,20.8,28.63,WSW,245,2.9,4.9,38,0.00,,---,0.00,VWS V14.01,2013-04-03 20:35:00,
2013-04-03 16:37:00,44.8,20.8,28.63,South,180,2.9,4.9,38,0.00,,---,0.00,VWS V14.01,2013-04-03 20:37:00,
2013-04-03 16:39:00,44.8,20.8,28.63,NNW,336,2.9,4.9,38,0.00,,---,0.00,VWS V14.01,2013-04-03 20:39:00,
2013-04-03 16:41:00,44.8,18.8,28.63,West,280,2.9,4.9,35,0.00,,---,0.00,VWS V14.01,2013-04-03 20:41:00,
2013-04-03 16:42:00,44.8,18.8,28.63,WSW,249,2.9,4.9,35,0.00,,---,0.00,VWS V14.01,2013-04-03 20:42:00,
2013-04-03 16:44:00,44.4,19.1,28.63,NW,312,4.0,4.9,36,0.00,,---,0.00,VWS V14.01,2013-04-03 20:44:00,
2013-04-03 16:45:00,44.6,20.0,28.63,WSW,254,4.0,4.9,37,0.00,,---,0.00,VWS V14.01,2013-04-03 20:45:00,
2013-04-03 16:47:00,44.6,19.3,28.63,NNW,332,4.9,4.9,36,0.00,,---,0.00,VWS V14.01,2013-04-03 20:47:00,
2013-04-03 16:50:00,44.6,19.3,28.63,NW,309,6.0,6.0,36,0.00,,---,0.00,VWS V14.01,2013-04-03 20:50:00,
2013-04-03 16:52:00,44.4,18.5,28.63,North,5,6.0,6.0,35,0.00,,---,0.00,VWS V14.01,2013-04-03 20:52:00,
2013-04-03 16:56:00,44.1,18.2,28.64,WNW,292,6.9,6.9,35,0.00,,---,0.00,VWS V14.01,2013-04-03 20:56:00,
2013-04-03 16:57:00,44.1,18.2,28.64,WNW,292,6.9,6.9,35,0.00,,---,0.00,VWS V14.01,2013-04-03 20:57:00,
2013-04-03 16:58:00,43.9,18.0,28.63,NW,309,6.9,6.9,35,0.00,,---,0.00,VWS V14.01,2013-04-03 20:58:00,
2013-04-03 17:02:00,43.5,17.7,28.64,NW,308,6.9,6.9,35,0.00,,---,0.00,VWS V14.01,2013-04-03 21:02:00,
2013-04-03 17:03:00,43.3,18.8,28.64,NW,313,6.9,6.9,37,0.00,,---,0.00,VWS V14.01,2013-04-03 21:03:00,
2013-04-03 17:07:00,43.2,18.1,28.64,NW,315,6.0,6.9,36,0.00,,---,0.00,VWS V14.01,2013-04-03 21:07:00,
2013-04-03 17:08:00,43.0,17.9,28.65,WNW,300,4.9,6.9,36,0.00,,---,0.00,VWS V14.01,2013-04-03 21:08:00,
2013-04-03 17:12:00,42.6,18.2,28.65,West,273,4.9,6.9,37,0.00,,---,0.00,VWS V14.01,2013-04-03 21:12:00,
2013-04-03 17:13:00,42.6,17.5,28.65,West,280,4.9,6.9,36,0.00,,---,0.00,VWS V14.01,2013-04-03 21:13:00,
2013-04-03 17:17:00,42.6,18.2,28.65,NNW,331,6.0,6.9,37,0.00,,---,0.00,VWS V14.01,2013-04-03 21:17:00,
2013-04-03 17:18:00,42.6,18.2,28.65,WNW,286,4.9,6.9,37,0.00,,---,0.00,VWS V14.01,2013-04-03 21:18:00,
2013-04-03 17:22:00,42.4,18.0,28.65,NNE,16,4.0,6.9,37,0.00,,---,0.00,VWS V14.01,2013-04-03 21:22:00,
2013-04-03 17:23:00,42.4,18.6,28.65,NE,42,4.9,6.9,38,0.00,,---,0.00,VWS V14.01,2013-04-03 21:23:00,
2013-04-03 17:27:00,42.8,20.2,28.66,SW,219,2.9,6.9,40,0.00,,---,0.00,VWS V14.01,2013-04-03 21:27:00,
2013-04-03 17:28:00,43.0,20.4,28.66,NW,311,4.0,6.9,40,0.00,,---,0.00,VWS V14.01,2013-04-03 21:28:00,
2013-04-03 17:32:00,43.3,19.4,28.66,NW,325,4.9,4.9,38,0.00,,---,0.00,VWS V14.01,2013-04-03 21:32:00,
2013-04-03 17:33:00,43.3,18.8,28.66,WSW,253,6.0,6.0,37,0.00,,---,0.00,VWS V14.01,2013-04-03 21:33:00,
2013-04-03 17:37:00,42.8,18.4,28.67,East,84,8.1,8.1,37,0.00,,---,0.00,VWS V14.01,2013-04-03 21:37:00,
2013-04-03 17:38:00,42.6,18.8,28.67,WNW,284,8.1,8.1,38,0.00,,---,0.00,VWS V14.01,2013-04-03 21:38:00,
2013-04-03 17:39:00,42.6,18.8,28.67,SW,234,8.1,8.1,38,0.00,,---,0.00,VWS V14.01,2013-04-03 21:39:00,
2013-04-03 17:42:00,42.4,18.6,28.67,WNW,302,6.0,8.1,38,0.00,,---,0.00,VWS V14.01,2013-04-03 21:42:00,
2013-04-03 17:43:00,42.4,19.2,28.67,NW,313,6.0,8.1,39,0.00,,---,0.00,VWS V14.01,2013-04-03 21:43:00,
2013-04-03 17:44:00,42.4,18.6,28.68,NNE,24,6.0,8.1,38,0.00,,---,0.00,VWS V14.01,2013-04-03 21:44:00,
2013-04-03 17:47:00,42.3,19.1,28.68,NE,34,4.9,8.1,39,0.00,,---,0.00,VWS V14.01,2013-04-03 21:47:00,
2013-04-03 17:48:00,42.3,18.5,28.68,NW,317,4.9,8.1,38,0.00,,---,0.00,VWS V14.01,2013-04-03 21:48:00,
2013-04-03 17:49:00,42.1,18.3,28.68,North,355,4.9,8.1,38,0.00,,---,0.00,VWS V14.01,2013-04-03 21:49:00,
2013-04-03 17:52:00,42.1,18.3,28.68,NW,304,4.9,8.1,38,0.00,,---,0.00,VWS V14.01,2013-04-03 21:52:00,
2013-04-03 17:53:00,42.1,19.0,28.68,WSW,253,4.0,4.0,39,0.00,,---,0.00,VWS V14.01,2013-04-03 21:53:00,
2013-04-03 17:54:00,42.1,19.0,28.68,WSW,244,4.0,4.0,39,0.00,,---,0.00,VWS V14.01,2013-04-03 21:54:00,
2013-04-03 17:57:00,42.3,17.9,28.68,NNW,328,4.0,4.0,37,0.00,,---,0.00,VWS V14.01,2013-04-03 21:57:00,
2013-04-03 17:58:00,42.3,17.3,28.68,West,278,4.0,4.0,36,0.00,,---,0.00,VWS V14.01,2013-04-03 21:58:00,
2013-04-03 17:59:00,42.3,17.3,28.68,West,260,4.0,4.0,36,0.00,,---,0.00,VWS V14.01,2013-04-03 21:59:00,
2013-04-03 18:02:00,41.9,17.5,28.69,NW,319,4.9,4.9,37,0.00,,---,0.00,VWS V14.01,2013-04-03 22:02:00,
2013-04-03 18:03:00,41.9,16.3,28.68,WSW,246,4.9,4.9,35,0.00,,---,0.00,VWS V14.01,2013-04-03 22:03:00,
2013-04-03 18:04:00,41.7,16.7,28.69,NNW,336,4.9,4.9,36,0.00,,---,0.00,VWS V14.01,2013-04-03 22:04:00,
2013-04-03 18:07:00,41.5,17.2,28.69,SE,142,6.0,6.0,37,0.00,,---,0.00,VWS V14.01,2013-04-03 22:07:00,
2013-04-03 18:08:00,41.5,17.2,28.69,West,269,6.0,6.0,37,0.00,,---,0.00,VWS V14.01,2013-04-03 22:08:00,
2013-04-03 18:09:00,41.5,17.2,28.69,West,271,6.0,6.0,37,0.00,,---,0.00,VWS V14.01,2013-04-03 22:09:00,
2013-04-03 18:12:00,41.4,17.7,28.69,NW,320,4.9,6.0,38,0.00,,---,0.00,VWS V14.01,2013-04-03 22:12:00,
2013-04-03 18:13:00,41.4,18.3,28.69,NW,312,4.9,6.0,39,0.00,,---,0.00,VWS V14.01,2013-04-03 22:13:00,
2013-04-03 18:14:00,41.4,17.7,28.69,NW,312,4.9,6.0,38,0.00,,---,0.00,VWS V14.01,2013-04-03 22:14:00,
2013-04-03 18:17:00,41.4,17.7,28.69,NNE,20,4.0,6.0,38,0.00,,---,0.00,VWS V14.01,2013-04-03 22:17:00,
2013-04-03 18:18:00,41.5,18.4,28.69,WSW,257,2.9,6.0,39,0.00,,---,0.00,VWS V14.01,2013-04-03 22:18:00,
2013-04-03 18:19:00,41.4,17.7,28.69,NW,308,2.9,6.0,38,0.00,,---,0.00,VWS V14.01,2013-04-03 22:19:00,
2013-04-03 18:20:00,41.4,17.7,28.69,NW,308,2.9,6.0,38,0.00,,---,0.00,VWS V14.01,2013-04-03 22:20:00,
2013-04-03 18:22:00,41.4,17.7,28.69,West,271,4.0,6.0,38,0.00,,---,0.00,VWS V14.01,2013-04-03 22:22:00,
2013-04-03 18:23:00,41.4,17.7,28.69,ENE,74,2.9,6.0,38,0.00,,---,0.00,VWS V14.01,2013-04-03 22:23:00,
2013-04-03 18:24:00,41.4,17.7,28.69,WSW,244,4.0,6.0,38,0.00,,---,0.00,VWS V14.01,2013-04-03 22:24:00,
2013-04-03 18:25:00,41.4,17.7,28.69,WSW,244,4.0,6.0,38,0.00,,---,0.00,VWS V14.01,2013-04-03 22:25:00,
2013-04-03 18:27:00,41.2,16.9,28.70,West,279,4.9,6.0,37,0.00,,---,0.00,VWS V14.01,2013-04-03 22:27:00,
2013-04-03 18:29:00,41.2,16.3,28.70,WSW,253,4.9,6.0,36,0.00,,---,0.00,VWS V14.01,2013-04-03 22:29:00,
2013-04-03 18:30:00,41.2,16.3,28.70,NNW,338,6.0,6.0,36,0.00,,---,0.00,VWS V14.01,2013-04-03 22:30:00,
2013-04-03 18:32:00,41.0,16.1,28.70,WNW,291,6.0,6.0,36,0.00,,---,0.00,VWS V14.01,2013-04-03 22:32:00,
2013-04-03 18:34:00,40.8,15.9,28.70,WNW,302,6.9,6.9,36,0.00,,---,0.00,VWS V14.01,2013-04-03 22:34:00,
2013-04-03 18:35:00,40.8,15.9,28.70,West,273,6.9,6.9,36,0.00,,---,0.00,VWS V14.01,2013-04-03 22:35:00,
2013-04-03 18:38:00,40.8,15.9,28.70,North,355,6.0,6.9,36,0.00,,---,0.00,VWS V14.01,2013-04-03 22:38:00,
2013-04-03 18:39:00,40.6,15.8,28.70,NW,309,4.9,6.9,36,0.00,,---,0.00,VWS V14.01,2013-04-03 22:39:00,
2013-04-03 18:40:00,40.6,15.8,28.70,North,0,4.9,6.9,36,0.00,,---,0.00,VWS V14.01,2013-04-03 22:40:00,
2013-04-03 18:43:00,40.6,17.0,28.70,West,279,4.0,6.9,38,0.00,,---,0.00,VWS V14.01,2013-04-03 22:43:00,
2013-04-03 18:44:00,40.6,16.4,28.70,WNW,302,4.0,6.9,37,0.00,,---,0.00,VWS V14.01,2013-04-03 22:44:00,
2013-04-03 18:45:00,40.5,16.9,28.71,NNW,327,4.0,6.9,38,0.00,,---,0.00,VWS V14.01,2013-04-03 22:45:00,
2013-04-03 18:48:00,40.5,16.9,28.71,WNW,302,4.9,6.9,38,0.00,,---,0.00,VWS V14.01,2013-04-03 22:48:00,
2013-04-03 18:49:00,40.5,17.5,28.71,West,264,4.9,6.9,39,0.00,,---,0.00,VWS V14.01,2013-04-03 22:49:00,
2013-04-03 18:50:00,40.3,17.3,28.71,WNW,291,4.9,6.9,39,0.00,,---,0.00,VWS V14.01,2013-04-03 22:50:00,
2013-04-03 18:53:00,40.3,16.7,28.71,WSW,238,4.9,6.9,38,0.00,,---,0.00,VWS V14.01,2013-04-03 22:53:00,
2013-04-03 18:54:00,40.1,16.5,28.71,WSW,250,6.0,6.9,38,0.00,,---,0.00,VWS V14.01,2013-04-03 22:54:00,
2013-04-03 18:55:00,39.9,16.4,28.72,NW,306,6.0,6.9,38,0.00,,---,0.00,VWS V14.01,2013-04-03 22:55:00,
2013-04-03 18:58:00,39.7,16.2,28.71,West,281,6.0,6.9,38,0.00,,---,0.00,VWS V14.01,2013-04-03 22:58:00,
2013-04-03 18:59:00,39.7,15.6,28.72,NW,304,6.0,6.9,37,0.00,,---,0.00,VWS V14.01,2013-04-03 22:59:00,
2013-04-03 19:00:00,39.7,15.6,28.71,NNW,329,4.9,4.9,37,0.00,,---,0.00,VWS V14.01,2013-04-03 23:00:00,
2013-04-03 19:03:00,39.6,16.1,28.72,West,281,4.9,4.9,38,0.00,,---,0.00,VWS V14.01,2013-04-03 23:03:00,
2013-04-03 19:04:00,39.4,15.9,28.72,South,171,4.0,4.9,38,0.00,,---,0.00,VWS V14.01,2013-04-03 23:04:00,
2013-04-03 19:05:00,39.4,15.9,28.72,South,171,4.0,4.9,38,0.00,,---,0.00,VWS V14.01,2013-04-03 23:05:00,
2013-04-03 19:08:00,39.0,16.2,28.72,WSW,254,4.0,4.9,39,0.00,,---,0.00,VWS V14.01,2013-04-03 23:08:00,
2013-04-03 19:10:00,39.0,16.7,28.72,WNW,288,4.0,4.9,40,0.00,,---,0.00,VWS V14.01,2013-04-03 23:10:00,
2013-04-03 19:13:00,38.8,16.0,28.72,WNW,303,4.0,4.9,39,0.00,,---,0.00,VWS V14.01,2013-04-03 23:13:00,
2013-04-03 19:15:00,38.7,17.0,28.72,WSW,258,2.9,4.9,41,0.00,,---,0.00,VWS V14.01,2013-04-03 23:15:00,
2013-04-03 19:18:00,38.5,16.9,28.72,WNW,300,2.9,4.9,41,0.00,,---,0.00,VWS V14.01,2013-04-03 23:18:00,
2013-04-03 19:20:00,38.3,16.7,28.72,WNW,288,2.9,4.9,41,0.00,,---,0.00,VWS V14.01,2013-04-03 23:20:00,
2013-04-03 19:23:00,38.1,16.5,28.73,NW,310,2.9,4.9,41,0.00,,---,0.00,VWS V14.01,2013-04-03 23:23:00,
2013-04-03 19:25:00,37.9,16.3,28.73,SSE,157,4.0,4.9,41,0.00,,---,0.00,VWS V14.01,2013-04-03 23:25:00,
2013-04-03 19:26:00,37.9,16.3,28.73,WNW,299,4.0,4.9,41,0.00,,---,0.00,VWS V14.01,2013-04-03 23:26:00,
2013-04-03 19:28:00,37.9,16.3,28.73,WNW,286,4.0,4.9,41,0.00,,---,0.00,VWS V14.01,2013-04-03 23:28:00,
2013-04-03 19:30:00,37.8,16.2,28.73,NW,315,4.0,4.0,41,0.00,,---,0.00,VWS V14.01,2013-04-03 23:30:00,
2013-04-03 19:31:00,37.8,16.8,28.73,NNW,337,4.0,4.0,42,0.00,,---,0.00,VWS V14.01,2013-04-03 23:31:00,
2013-04-03 19:34:00,37.8,16.8,28.73,West,281,4.0,4.0,42,0.00,,---,0.00,VWS V14.01,2013-04-03 23:34:00,
2013-04-03 19:35:00,37.6,16.6,28.73,WSW,237,4.0,4.0,42,0.00,,---,0.00,VWS V14.01,2013-04-03 23:35:00,
2013-04-03 19:36:00,37.6,16.6,28.73,WSW,237,4.0,4.0,42,0.00,,---,0.00,VWS V14.01,2013-04-03 23:36:00,
2013-04-03 19:39:00,37.4,16.4,28.72,WNW,303,2.9,4.0,42,0.00,,---,0.00,VWS V14.01,2013-04-03 23:39:00,
2013-04-03 19:40:00,37.4,16.4,28.73,WNW,285,2.9,4.0,42,0.00,,---,0.00,VWS V14.01,2013-04-03 23:40:00,
2013-04-03 19:42:00,37.2,16.2,28.73,NW,312,2.9,4.0,42,0.00,,---,0.00,VWS V14.01,2013-04-03 23:42:00,
2013-04-03 19:44:00,37.2,16.2,28.74,NW,304,2.9,4.0,42,0.00,,---,0.00,VWS V14.01,2013-04-03 23:44:00,
2013-04-03 19:45:00,37.0,16.1,28.74,NW,306,2.0,4.0,42,0.00,,---,0.00,VWS V14.01,2013-04-03 23:45:00,
2013-04-03 19:47:00,37.0,16.1,28.74,NW,306,2.0,4.0,42,0.00,,---,0.00,VWS V14.01,2013-04-03 23:47:00,
2013-04-03 19:49:00,37.0,16.1,28.74,NW,306,2.0,4.0,42,0.00,,---,0.00,VWS V14.01,2013-04-03 23:49:00,
2013-04-03 19:51:00,36.9,16.0,28.74,WSW,253,2.0,4.0,42,0.00,,---,0.00,VWS V14.01,2013-04-03 23:51:00,
2013-04-03 19:52:00,36.9,16.0,28.74,WSW,253,2.0,4.0,42,0.00,,---,0.00,VWS V14.01,2013-04-03 23:52:00,
2013-04-03 19:54:00,36.9,15.4,28.74,NW,324,2.0,4.0,41,0.00,,---,0.00,VWS V14.01,2013-04-03 23:54:00,
2013-04-03 19:57:00,36.9,16.0,28.74,West,276,2.0,4.0,42,0.00,,---,0.00,VWS V14.01,2013-04-03 23:57:00,
2013-04-03 19:59:00,36.9,16.0,28.74,WSW,242,2.0,2.0,42,0.00,,---,0.00,VWS V14.01,2013-04-03 23:59:00,
2013-04-03 20:02:00,36.7,15.8,28.74,NW,326,2.0,2.9,42,0.00,,---,0.00,VWS V14.01,2013-04-04 00:02:00,
2013-04-03 20:04:00,36.7,15.8,28.74,NW,304,2.0,2.9,42,0.00,,---,0.00,VWS V14.01,2013-04-04 00:04:00,
2013-04-03 20:07:00,36.5,15.6,28.74,East,92,2.0,2.9,42,0.00,,---,0.00,VWS V14.01,2013-04-04 00:07:00,
2013-04-03 20:09:00,36.5,15.6,28.74,NW,313,2.0,2.9,42,0.00,,---,0.00,VWS V14.01,2013-04-04 00:09:00,
2013-04-03 20:12:00,36.3,16.0,28.74,WSW,243,0.9,2.9,43,0.00,,---,0.00,VWS V14.01,2013-04-04 00:12:00,
2013-04-03 20:13:00,36.3,16.0,28.74,WNW,288,2.0,2.9,43,0.00,,---,0.00,VWS V14.01,2013-04-04 00:13:00,
2013-04-03 20:14:00,36.3,16.0,28.75,WNW,288,0.9,2.9,43,0.00,,---,0.00,VWS V14.01,2013-04-04 00:14:00,
2013-04-03 20:17:00,36.1,15.8,28.74,NW,309,0.9,2.9,43,0.00,,---,0.00,VWS V14.01,2013-04-04 00:17:00,
2013-04-03 20:19:00,36.1,15.8,28.74,NW,309,0.9,2.9,43,0.00,,---,0.00,VWS V14.01,2013-04-04 00:19:00,
2013-04-03 20:22:00,36.1,16.3,28.74,West,281,0.9,2.9,44,0.00,,---,0.00,VWS V14.01,2013-04-04 00:22:00,
2013-04-03 20:23:00,36.0,16.2,28.74,West,281,0.9,2.9,44,0.00,,---,0.00,VWS V14.01,2013-04-04 00:23:00,
2013-04-03 20:24:00,36.0,16.2,28.74,West,281,0.9,2.9,44,0.00,,---,0.00,VWS V14.01,2013-04-04 00:24:00,
2013-04-03 20:27:00,36.0,16.2,28.74,West,281,0.9,2.9,44,0.00,,---,0.00,VWS V14.01,2013-04-04 00:27:00,
2013-04-03 20:28:00,35.8,16.0,28.74,WNW,294,0.9,2.9,44,0.00,,---,0.00,VWS V14.01,2013-04-04 00:28:00,
2013-04-03 20:29:00,35.8,16.0,28.75,WNW,297,0.9,2.9,44,0.00,,---,0.00,VWS V14.01,2013-04-04 00:29:00,
2013-04-03 20:32:00,35.8,16.0,28.75,WNW,299,0.9,0.9,44,0.00,,---,0.00,VWS V14.01,2013-04-04 00:32:00,
2013-04-03 20:33:00,35.6,15.9,28.75,WNW,299,0.9,0.9,44,0.00,,---,0.00,VWS V14.01,2013-04-04 00:33:00,
2013-04-03 20:34:00,35.6,15.9,28.75,WNW,299,0.9,0.9,44,0.00,,---,0.00,VWS V14.01,2013-04-04 00:34:00,
2013-04-03 20:37:00,35.4,15.7,28.75,WNW,299,0.9,0.9,44,0.00,,---,0.00,VWS V14.01,2013-04-04 00:37:00,
2013-04-03 20:38:00,35.4,15.7,28.75,WNW,299,0.9,0.9,44,0.00,,---,0.00,VWS V14.01,2013-04-04 00:38:00,
2013-04-03 20:40:00,35.4,16.2,28.76,WNW,299,0.0,0.9,45,0.00,,---,0.00,VWS V14.01,2013-04-04 00:40:00,
2013-04-03 20:42:00,35.4,16.2,28.75,WNW,299,0.0,0.9,45,0.00,,---,0.00,VWS V14.01,2013-04-04 00:42:00,
2013-04-03 20:43:00,35.4,16.2,28.75,WNW,299,0.0,0.9,45,0.00,,---,0.00,VWS V14.01,2013-04-04 00:43:00,
2013-04-03 20:45:00,35.2,16.0,28.76,WNW,299,0.0,0.9,45,0.00,,---,0.00,VWS V14.01,2013-04-04 00:45:00,
2013-04-03 20:47:00,35.2,16.5,28.76,WNW,299,0.0,0.9,46,0.00,,---,0.00,VWS V14.01,2013-04-04 00:47:00,
2013-04-03 20:48:00,35.2,16.0,28.75,WNW,286,0.0,0.9,45,0.00,,---,0.00,VWS V14.01,2013-04-04 00:48:00,
2013-04-03 20:50:00,35.2,16.5,28.75,WNW,286,0.9,0.9,46,0.00,,---,0.00,VWS V14.01,2013-04-04 00:50:00,
2013-04-03 20:52:00,35.1,15.9,28.75,NNW,342,0.9,0.9,45,0.00,,---,0.00,VWS V14.01,2013-04-04 00:52:00,
2013-04-03 20:53:00,35.1,16.4,28.75,NNW,342,0.9,0.9,46,0.00,,---,0.00,VWS V14.01,2013-04-04 00:53:00,
2013-04-03 20:55:00,35.1,16.4,28.75,NNW,334,0.9,0.9,46,0.00,,---,0.00,VWS V14.01,2013-04-04 00:55:00,
2013-04-03 20:57:00,34.9,16.2,28.75,NNW,334,0.9,0.9,46,0.00,,---,0.00,VWS V14.01,2013-04-04 00:57:00,
2013-04-03 20:58:00,34.9,16.2,28.75,NW,314,0.9,0.9,46,0.00,,---,0.00,VWS V14.01,2013-04-04 00:58:00,
2013-04-03 21:00:00,34.5,16.4,28.75,NW,314,0.0,0.0,47,0.00,,---,0.00,VWS V14.01,2013-04-04 01:00:00,
2013-04-03 21:03:00,34.5,15.9,28.75,NNE,31,0.0,0.0,46,0.00,,---,0.00,VWS V14.01,2013-04-04 01:03:00,
2013-04-03 21:05:00,34.3,15.7,28.75,NW,308,0.0,0.9,46,0.00,,---,0.00,VWS V14.01,2013-04-04 01:05:00,
2013-04-03 21:08:00,34.3,16.2,28.75,NW,308,0.0,0.9,47,0.00,,---,0.00,VWS V14.01,2013-04-04 01:08:00,
2013-04-03 21:10:00,34.3,16.2,28.75,NW,308,0.0,0.9,47,0.00,,---,0.00,VWS V14.01,2013-04-04 01:10:00,
2013-04-03 21:13:00,34.3,16.7,28.75,NW,308,0.0,0.9,48,0.00,,---,0.00,VWS V14.01,2013-04-04 01:13:00,
2013-04-03 21:16:00,34.3,16.7,28.75,NW,308,0.0,0.9,48,0.00,,---,0.00,VWS V14.01,2013-04-04 01:16:00,
2013-04-03 21:18:00,34.2,16.6,28.75,NW,308,0.0,0.9,48,0.00,,---,0.00,VWS V14.01,2013-04-04 01:18:00,
2013-04-03 21:21:00,34.0,16.4,28.75,NW,308,0.0,0.9,48,0.00,,---,0.00,VWS V14.01,2013-04-04 01:21:00,
2013-04-03 21:23:00,34.0,16.4,28.76,NW,308,0.0,0.9,48,0.00,,---,0.00,VWS V14.01,2013-04-04 01:23:00,
2013-04-03 21:25:00,33.6,16.5,28.76,SSW,202,0.0,0.9,49,0.00,,---,0.00,VWS V14.01,2013-04-04 01:25:00,
2013-04-03 21:28:00,33.6,16.5,28.76,SSW,202,0.0,0.9,49,0.00,,---,0.00,VWS V14.01,2013-04-04 01:28:00,
2013-04-03 21:31:00,33.4,16.8,28.75,SSW,202,0.0,0.0,50,0.00,,---,0.00,VWS V14.01,2013-04-04 01:31:00,
2013-04-03 21:33:00,33.4,16.8,28.76,SSW,209,0.0,0.0,50,0.00,,---,0.00,VWS V14.01,2013-04-04 01:33:00,
2013-04-03 21:36:00,33.1,17.0,28.76,SSW,209,0.0,0.0,51,0.00,,---,0.00,VWS V14.01,2013-04-04 01:36:00,
2013-04-03 21:38:00,33.1,17.4,28.76,SSW,209,0.0,0.0,52,0.00,,---,0.00,VWS V14.01,2013-04-04 01:38:00,
2013-04-03 21:39:00,32.9,17.2,28.76,SSW,209,0.0,0.0,52,0.00,,---,0.00,VWS V14.01,2013-04-04 01:39:00,
2013-04-03 21:42:00,32.7,17.0,28.76,SSW,209,0.0,0.0,52,0.00,,---,0.00,VWS V14.01,2013-04-04 01:42:00,
2013-04-03 21:43:00,32.7,17.0,28.76,SSW,209,0.0,0.0,52,0.00,,---,0.00,VWS V14.01,2013-04-04 01:43:00,
2013-04-03 21:44:00,32.5,17.3,28.76,NW,321,0.0,0.0,53,0.00,,---,0.00,VWS V14.01,2013-04-04 01:44:00,
2013-04-03 21:47:00,32.4,17.2,28.76,NW,321,0.0,0.0,53,0.00,,---,0.00,VWS V14.01,2013-04-04 01:47:00,
2013-04-03 21:49:00,32.4,17.6,28.76,West,261,0.0,0.0,54,0.00,,---,0.00,VWS V14.01,2013-04-04 01:49:00,
2013-04-03 21:50:00,32.4,17.6,28.76,West,261,0.0,0.0,54,0.00,,---,0.00,VWS V14.01,2013-04-04 01:50:00,
2013-04-03 21:52:00,32.2,17.9,28.76,West,261,0.0,0.0,55,0.00,,---,0.00,VWS V14.01,2013-04-04 01:52:00,
2013-04-03 21:54:00,32.2,17.9,28.76,West,261,0.9,0.9,55,0.00,,---,0.00,VWS V14.01,2013-04-04 01:54:00,
2013-04-03 21:55:00,32.0,17.7,28.76,West,261,0.9,0.9,55,0.00,,---,0.00,VWS V14.01,2013-04-04 01:55:00,
2013-04-03 21:57:00,32.0,17.7,28.76,NNW,345,0.9,0.9,55,0.00,,---,0.00,VWS V14.01,2013-04-04 01:57:00,
2013-04-03 21:59:00,31.8,17.5,28.76,NNW,345,0.9,0.9,55,0.00,,---,0.00,VWS V14.01,2013-04-04 01:59:00,
2013-04-03 22:00:00,31.8,17.5,28.76,NNW,345,0.9,0.9,55,0.00,,---,0.00,VWS V14.01,2013-04-04 02:00:00,
2013-04-03 22:02:00,31.8,17.5,28.76,NNW,345,0.0,0.9,55,0.00,,---,0.00,VWS V14.01,2013-04-04 02:02:00,
2013-04-03 22:04:00,31.8,17.9,28.76,NNW,345,0.0,0.9,56,0.00,,---,0.00,VWS V14.01,2013-04-04 02:04:00,
2013-04-03 22:05:00,31.8,17.9,28.77,NNW,345,0.0,0.9,56,0.00,,---,0.00,VWS V14.01,2013-04-04 02:05:00,
2013-04-03 22:07:00,31.6,17.7,28.77,NNW,345,0.0,0.9,56,0.00,,---,0.00,VWS V14.01,2013-04-04 02:07:00,
2013-04-03 22:09:00,31.6,17.7,28.77,NNW,345,0.0,0.9,56,0.00,,---,0.00,VWS V14.01,2013-04-04 02:09:00,
2013-04-03 22:10:00,31.6,17.7,28.77,NNW,345,0.0,0.9,56,0.00,,---,0.00,VWS V14.01,2013-04-04 02:10:00,
2013-04-03 22:12:00,31.6,17.7,28.77,NNW,345,0.0,0.9,56,0.00,,---,0.00,VWS V14.01,2013-04-04 02:12:00,
2013-04-03 22:14:00,31.5,18.0,28.77,NNW,345,0.0,0.9,57,0.00,,---,0.00,VWS V14.01,2013-04-04 02:14:00,
2013-04-03 22:15:00,31.5,18.0,28.77,NNW,345,0.0,0.9,57,0.00,,---,0.00,VWS V14.01,2013-04-04 02:15:00,
2013-04-03 22:17:00,31.5,18.0,28.77,NNW,345,0.0,0.9,57,0.00,,---,0.00,VWS V14.01,2013-04-04 02:17:00,
2013-04-03 22:19:00,31.3,17.9,28.77,NNW,345,0.0,0.9,57,0.00,,---,0.00,VWS V14.01,2013-04-04 02:19:00,
2013-04-03 22:20:00,31.3,17.9,28.77,NNW,345,0.0,0.9,57,0.00,,---,0.00,VWS V14.01,2013-04-04 02:20:00,
2013-04-03 22:22:00,31.3,18.2,28.77,NNW,345,0.0,0.9,58,0.00,,---,0.00,VWS V14.01,2013-04-04 02:22:00,
2013-04-03 22:24:00,31.1,18.1,28.77,NNW,345,0.0,0.9,58,0.00,,---,0.00,VWS V14.01,2013-04-04 02:24:00,
2013-04-03 22:25:00,31.1,18.1,28.77,NNW,345,0.0,0.9,58,0.00,,---,0.00,VWS V14.01,2013-04-04 02:25:00,
2013-04-03 22:28:00,30.9,17.9,28.77,WNW,298,0.0,0.9,58,0.00,,---,0.00,VWS V14.01,2013-04-04 02:28:00,
2013-04-03 22:30:00,30.9,17.9,28.77,WNW,298,0.0,0.9,58,0.00,,---,0.00,VWS V14.01,2013-04-04 02:30:00,
2013-04-03 22:33:00,30.9,18.3,28.77,WNW,298,0.0,0.0,59,0.00,,---,0.00,VWS V14.01,2013-04-04 02:33:00,
2013-04-03 22:35:00,30.9,18.3,28.77,WNW,298,0.0,0.0,59,0.00,,---,0.00,VWS V14.01,2013-04-04 02:35:00,
2013-04-03 22:38:00,30.7,18.1,28.77,NNE,26,0.0,0.0,59,0.00,,---,0.00,VWS V14.01,2013-04-04 02:38:00,
2013-04-03 22:40:00,30.7,18.1,28.77,NNE,26,0.0,0.0,59,0.00,,---,0.00,VWS V14.01,2013-04-04 02:40:00,
2013-04-03 22:43:00,30.7,18.1,28.77,NNE,26,0.0,0.0,59,0.00,,---,0.00,VWS V14.01,2013-04-04 02:43:00,
2013-04-03 22:45:00,30.7,18.1,28.77,NNE,26,0.0,0.0,59,0.00,,---,0.00,VWS V14.01,2013-04-04 02:45:00,
2013-04-03 22:46:00,30.7,18.1,28.77,NNE,26,0.0,0.0,59,0.00,,---,0.00,VWS V14.01,2013-04-04 02:46:00,
2013-04-03 22:48:00,30.6,18.0,28.77,NNE,26,0.0,0.0,59,0.00,,---,0.00,VWS V14.01,2013-04-04 02:48:00,
2013-04-03 22:50:00,30.6,18.4,28.77,NNE,26,0.0,0.0,60,0.00,,---,0.00,VWS V14.01,2013-04-04 02:50:00,
2013-04-03 22:51:00,30.6,18.4,28.77,NNE,26,0.0,0.0,60,0.00,,---,0.00,VWS V14.01,2013-04-04 02:51:00,
2013-04-03 22:53:00,30.6,18.4,28.77,NNE,26,0.0,0.0,60,0.00,,---,0.00,VWS V14.01,2013-04-04 02:53:00,
2013-04-03 22:55:00,30.6,18.4,28.77,NNE,26,0.0,0.0,60,0.00,,---,0.00,VWS V14.01,2013-04-04 02:55:00,
2013-04-03 22:56:00,30.6,18.4,28.77,NNE,26,0.0,0.0,60,0.00,,---,0.00,VWS V14.01,2013-04-04 02:56:00,
2013-04-03 22:58:00,30.6,18.4,28.77,NNE,26,0.0,0.0,60,0.00,,---,0.00,VWS V14.01,2013-04-04 02:58:00,
2013-04-03 23:00:00,30.6,18.4,28.77,NNE,26,0.0,0.0,60,0.00,,---,0.00,VWS V14.01,2013-04-04 03:00:00,
2013-04-03 23:01:00,30.6,18.4,28.77,NNE,26,0.0,0.0,60,0.00,,---,0.00,VWS V14.01,2013-04-04 03:01:00,
2013-04-03 23:03:00,30.4,18.2,28.77,NNE,26,0.0,0.0,60,0.00,,---,0.00,VWS V14.01,2013-04-04 03:03:00,
2013-04-03 23:05:00,30.4,18.2,28.76,NNE,26,0.0,0.0,60,0.00,,---,0.00,VWS V14.01,2013-04-04 03:05:00,
2013-04-03 23:07:00,30.4,18.2,28.76,NNE,26,0.0,0.0,60,0.00,,---,0.00,VWS V14.01,2013-04-04 03:07:00,
2013-04-03 23:08:00,30.2,18.0,28.76,NNE,26,0.0,0.0,60,0.00,,---,0.00,VWS V14.01,2013-04-04 03:08:00,
2013-04-03 23:10:00,30.2,18.0,28.76,WNW,282,0.0,0.0,60,0.00,,---,0.00,VWS V14.01,2013-04-04 03:10:00,
2013-04-03 23:12:00,30.0,17.8,28.77,WNW,282,0.0,0.0,60,0.00,,---,0.00,VWS V14.01,2013-04-04 03:12:00,
2013-04-03 23:13:00,30.0,17.8,28.76,WNW,282,0.0,0.0,60,0.00,,---,0.00,VWS V14.01,2013-04-04 03:13:00,
2013-04-03 23:15:00,30.0,18.2,28.76,WNW,282,0.0,0.0,61,0.00,,---,0.00,VWS V14.01,2013-04-04 03:15:00,
2013-04-03 23:17:00,29.8,18.0,28.76,WNW,282,0.0,0.0,61,0.00,,---,0.00,VWS V14.01,2013-04-04 03:17:00,
2013-04-03 23:18:00,29.8,18.0,28.77,WNW,282,0.0,0.0,61,0.00,,---,0.00,VWS V14.01,2013-04-04 03:18:00,
2013-04-03 23:20:00,29.8,18.0,28.77,WNW,282,0.0,0.0,61,0.00,,---,0.00,VWS V14.01,2013-04-04 03:20:00,
2013-04-03 23:22:00,29.7,17.9,28.77,WNW,282,0.0,0.0,61,0.00,,---,0.00,VWS V14.01,2013-04-04 03:22:00,
2013-04-03 23:24:00,29.7,17.9,28.77,WNW,282,0.0,0.0,61,0.00,,---,0.00,VWS V14.01,2013-04-04 03:24:00,
2013-04-03 23:25:00,29.7,17.9,28.77,WNW,282,0.0,0.0,61,0.00,,---,0.00,VWS V14.01,2013-04-04 03:25:00,
2013-04-03 23:27:00,29.7,17.5,28.76,WNW,282,0.0,0.0,60,0.00,,---,0.00,VWS V14.01,2013-04-04 03:27:00,
2013-04-03 23:29:00,29.5,17.3,28.76,WNW,282,0.0,0.0,60,0.00,,---,0.00,VWS V14.01,2013-04-04 03:29:00,
2013-04-03 23:30:00,29.5,17.3,28.76,WNW,282,0.0,0.0,60,0.00,,---,0.00,VWS V14.01,2013-04-04 03:30:00,
2013-04-03 23:32:00,29.5,17.0,28.76,WNW,282,0.0,0.0,59,0.00,,---,0.00,VWS V14.01,2013-04-04 03:32:00,
2013-04-03 23:34:00,29.3,16.8,28.76,WNW,282,0.0,0.0,59,0.00,,---,0.00,VWS V14.01,2013-04-04 03:34:00,
2013-04-03 23:35:00,29.3,16.8,28.76,NNW,342,0.0,0.0,59,0.00,,---,0.00,VWS V14.01,2013-04-04 03:35:00,
2013-04-03 23:37:00,29.3,16.4,28.76,NNW,342,0.0,0.0,58,0.00,,---,0.00,VWS V14.01,2013-04-04 03:37:00,
2013-04-03 23:40:00,29.1,16.2,28.76,NNW,342,0.0,0.0,58,0.00,,---,0.00,VWS V14.01,2013-04-04 03:40:00,
2013-04-03 23:42:00,29.3,16.0,28.76,NNW,342,0.0,0.0,57,0.00,,---,0.00,VWS V14.01,2013-04-04 03:42:00,
2013-04-03 23:45:00,29.3,16.0,28.76,NNW,342,0.0,0.0,57,0.00,,---,0.00,VWS V14.01,2013-04-04 03:45:00,
2013-04-03 23:46:00,29.3,16.0,28.75,SW,220,0.0,0.0,57,0.00,,---,0.00,VWS V14.01,2013-04-04 03:46:00,
2013-04-03 23:47:00,29.3,16.0,28.75,SW,229,0.0,0.0,57,0.00,,---,0.00,VWS V14.01,2013-04-04 03:47:00,
2013-04-03 23:50:00,29.5,15.8,28.75,SW,230,0.0,0.0,56,0.00,,---,0.00,VWS V14.01,2013-04-04 03:50:00,
2013-04-03 23:51:00,29.5,15.8,28.75,SW,230,0.0,0.0,56,0.00,,---,0.00,VWS V14.01,2013-04-04 03:51:00,
2013-04-03 23:52:00,29.5,15.8,28.75,SW,230,0.0,0.0,56,0.00,,---,0.00,VWS V14.01,2013-04-04 03:52:00,
2013-04-03 23:55:00,29.5,15.8,28.76,SW,230,0.0,0.0,56,0.00,,---,0.00,VWS V14.01,2013-04-04 03:55:00,
2013-04-03 23:56:00,29.5,15.8,28.76,SW,230,0.0,0.0,56,0.00,,---,0.00,VWS V14.01,2013-04-04 03:56:00,
2013-04-03 23:57:00,29.5,15.8,28.75,SW,229,0.0,0.0,56,0.00,,---,0.00,VWS V14.01,2013-04-04 03:57:00,